Wetterdaten: Mittwoch, 18.12.2019
Datum Zeit Temp. Aussen Temp. o. S. Temp +5cm Feuchte Auss Luftdruck Regen Sonnenschein Regendauer Solar Windben Empfang
18.12.2019 00:00 9,3 C 7,8 C 7,8 C 96 % 1007,5 hPa 0,0 l/m 0 min 0 min 0 W/m 3,2 km/h (1 Bft) 97,87 %
18.12.2019 00:02 9,3 C 7,8 C 7,8 C 96 % 1007,5 hPa 0,0 l/m 0 min 0 min 0 W/m 6,4 km/h (2 Bft) 97,22 %
18.12.2019 00:04 9,3 C 7,8 C 7,8 C 96 % 1007,6 hPa 0,0 l/m 0 min 0 min 0 W/m 6,4 km/h (2 Bft) 97,87 %
18.12.2019 00:08 9,3 C 7,8 C 7,8 C 96 % 1007,7 hPa 0,0 l/m 0 min 4 min 0 W/m 16,1 km/h (3 Bft) 97,87 %
18.12.2019 00:10 9,3 C 7,8 C 7,2 C 96 % 1007,7 hPa 0,0 l/m 0 min 2 min 0 W/m 16,1 km/h (3 Bft) 97,87 %
18.12.2019 00:12 9,3 C 7,8 C 7,2 C 96 % 1007,8 hPa 0,0 l/m 0 min 2 min 0 W/m 16,1 km/h (3 Bft) 97,83 %
18.12.2019 00:14 9,2 C 7,8 C 7,2 C 96 % 1007,8 hPa 0,0 l/m 0 min 0 min 0 W/m 19,3 km/h (3 Bft) 93,62 %
18.12.2019 00:16 9,2 C 7,8 C 7,2 C 96 % 1007,9 hPa 0,0 l/m 0 min 0 min 0 W/m 6,4 km/h (2 Bft) 97,87 %
18.12.2019 00:18 9,2 C 7,8 C 7,2 C 96 % 1007,9 hPa 0,0 l/m 0 min 0 min 0 W/m 6,4 km/h (2 Bft) 97,87 %
18.12.2019 00:20 9,2 C 7,8 C 7,2 C 96 % 1007,9 hPa 0,0 l/m 0 min 0 min 0 W/m 16,1 km/h (3 Bft) 100,00 %
18.12.2019 00:22 9,1 C 7,8 C 7,2 C 96 % 1008,0 hPa 0,0 l/m 0 min 0 min 0 W/m 12,9 km/h (3 Bft) 100,00 %
18.12.2019 00:24 9,1 C 7,8 C 7,2 C 96 % 1008,1 hPa 0,0 l/m 0 min 0 min 0 W/m 6,4 km/h (2 Bft) 100,00 %
18.12.2019 00:26 9,1 C 7,8 C 7,2 C 96 % 1008,1 hPa 0,0 l/m 0 min 0 min 0 W/m 6,4 km/h (2 Bft) 97,87 %
18.12.2019 00:28 9,1 C 7,8 C 7,2 C 96 % 1008,2 hPa 0,0 l/m 0 min 0 min 0 W/m 3,2 km/h (1 Bft) 100,00 %
18.12.2019 00:30 9,1 C 7,8 C 7,2 C 96 % 1008,2 hPa 0,0 l/m 0 min 0 min 0 W/m 16,1 km/h (3 Bft) 100,00 %
18.12.2019 00:32 9,1 C 7,8 C 7,2 C 96 % 1008,3 hPa 0,0 l/m 0 min 0 min 0 W/m 3,2 km/h (1 Bft) 100,00 %
18.12.2019 00:34 9,1 C 7,8 C 7,2 C 96 % 1008,4 hPa 0,0 l/m 0 min 0 min 0 W/m 16,1 km/h (3 Bft) 100,00 %
18.12.2019 00:36 9,0 C 7,8 C 7,2 C 96 % 1008,4 hPa 0,0 l/m 0 min 0 min 0 W/m 6,4 km/h (2 Bft) 100,00 %
18.12.2019 00:38 9,0 C 7,8 C 7,2 C 96 % 1008,5 hPa 0,0 l/m 0 min 0 min 0 W/m 12,9 km/h (3 Bft) 100,00 %
18.12.2019 00:40 9,0 C 7,8 C 7,2 C 96 % 1008,5 hPa 0,0 l/m 0 min 0 min 0 W/m 6,4 km/h (2 Bft) 97,87 %
18.12.2019 00:42 9,0 C 7,8 C 7,2 C 96 % 1008,5 hPa 0,0 l/m 0 min 0 min 0 W/m 16,1 km/h (3 Bft) 63,83 %
18.12.2019 00:44 9,0 C 7,8 C 7,2 C 96 % 1008,5 hPa 0,0 l/m 0 min 0 min 0 W/m 22,5 km/h (4 Bft) 92,86 %
18.12.2019 00:46 9,0 C 7,8 C 7,2 C 96 % 1008,6 hPa 0,0 l/m 0 min 0 min 0 W/m 6,4 km/h (2 Bft) 100,00 %
18.12.2019 00:48 9,0 C 7,8 C 7,2 C 96 % 1008,6 hPa 0,0 l/m 0 min 0 min 0 W/m 12,9 km/h (3 Bft) 100,00 %
18.12.2019 00:50 8,9 C 7,8 C 7,2 C 96 % 1008,6 hPa 0,0 l/m 0 min 0 min 0 W/m 12,9 km/h (3 Bft) 100,00 %
18.12.2019 00:52 8,9 C 7,8 C 7,2 C 96 % 1008,8 hPa 0,0 l/m 0 min 0 min 0 W/m 12,9 km/h (3 Bft) 97,87 %
18.12.2019 00:54 8,9 C 7,8 C 7,2 C 96 % 1008,8 hPa 0,0 l/m 0 min 0 min 0 W/m 9,7 km/h (2 Bft) 95,74 %
18.12.2019 00:56 8,9 C 7,8 C 7,2 C 96 % 1008,8 hPa 0,0 l/m 0 min 0 min 0 W/m 12,9 km/h (3 Bft) 97,87 %
18.12.2019 00:58 8,9 C 7,8 C 7,2 C 96 % 1008,8 hPa 0,0 l/m 0 min 0 min 0 W/m 12,9 km/h (3 Bft) 97,87 %
18.12.2019 01:00 8,9 C 7,8 C 7,2 C 96 % 1008,8 hPa 0,0 l/m 0 min 0 min 0 W/m 9,7 km/h (2 Bft) 97,83 %
18.12.2019 01:02 8,9 C 7,8 C 7,2 C 96 % 1008,8 hPa 0,0 l/m 0 min 0 min 0 W/m 3,2 km/h (1 Bft) 95,74 %
18.12.2019 01:04 8,9 C 7,8 C 7,2 C 96 % 1008,8 hPa 0,0 l/m 0 min 0 min 0 W/m 12,9 km/h (3 Bft) 97,87 %
18.12.2019 01:06 8,9 C 7,8 C 7,2 C 96 % 1008,9 hPa 0,0 l/m 0 min 0 min 0 W/m 12,9 km/h (3 Bft) 97,87 %
18.12.2019 01:08 8,9 C 7,8 C 7,2 C 96 % 1009,1 hPa 0,0 l/m 0 min 0 min 0 W/m 6,4 km/h (2 Bft) 95,74 %
18.12.2019 01:10 8,9 C 7,8 C 7,2 C 96 % 1009,1 hPa 0,0 l/m 0 min 0 min 0 W/m 22,5 km/h (4 Bft) 97,87 %
18.12.2019 01:12 8,9 C 7,8 C 7,2 C 97 % 1009,2 hPa 0,0 l/m 0 min 0 min 0 W/m 12,9 km/h (3 Bft) 95,65 %
18.12.2019 01:14 8,9 C 7,8 C 7,2 C 97 % 1009,3 hPa 0,0 l/m 0 min 0 min 0 W/m 16,1 km/h (3 Bft) 97,87 %
18.12.2019 01:16 8,9 C 7,8 C 7,2 C 97 % 1009,4 hPa 0,0 l/m 0 min 0 min 0 W/m 12,9 km/h (3 Bft) 97,87 %
18.12.2019 01:18 8,9 C 7,8 C 7,2 C 97 % 1009,3 hPa 0,0 l/m 0 min 0 min 0 W/m 3,2 km/h (1 Bft) 97,87 %
18.12.2019 01:20 8,9 C 7,8 C 7,2 C 97 % 1009,4 hPa 0,0 l/m 0 min 0 min 0 W/m 12,9 km/h (3 Bft) 97,87 %
18.12.2019 01:22 8,9 C 7,8 C 7,2 C 97 % 1009,4 hPa 0,0 l/m 0 min 0 min 0 W/m 9,7 km/h (2 Bft) 97,87 %
18.12.2019 01:24 8,9 C 7,8 C 7,2 C 97 % 1009,3 hPa 0,0 l/m 0 min 0 min 0 W/m 9,7 km/h (2 Bft) 97,83 %
18.12.2019 01:26 8,9 C 7,8 C 7,2 C 97 % 1009,4 hPa 0,0 l/m 0 min 0 min 0 W/m 12,9 km/h (3 Bft) 97,87 %
18.12.2019 01:28 8,9 C 7,8 C 7,2 C 97 % 1009,4 hPa 0,0 l/m 0 min 0 min 0 W/m 3,2 km/h (1 Bft) 95,74 %
18.12.2019 01:30 8,9 C 7,8 C 7,2 C 97 % 1009,5 hPa 0,0 l/m 0 min 0 min 0 W/m 12,9 km/h (3 Bft) 97,87 %
18.12.2019 01:32 8,9 C 7,8 C 7,2 C 97 % 1009,7 hPa 0,0 l/m 0 min 0 min 0 W/m 6,4 km/h (2 Bft) 95,74 %
18.12.2019 01:34 8,9 C 7,8 C 7,2 C 97 % 1009,7 hPa 0,0 l/m 0 min 0 min 0 W/m 6,4 km/h (2 Bft) 95,65 %
18.12.2019 01:36 8,9 C 7,8 C 7,2 C 97 % 1009,8 hPa 0,0 l/m 0 min 0 min 0 W/m 12,9 km/h (3 Bft) 97,87 %
18.12.2019 01:38 8,9 C 7,8 C 7,2 C 97 % 1009,8 hPa 0,0 l/m 0 min 0 min 0 W/m 3,2 km/h (1 Bft) 97,87 %
18.12.2019 01:40 8,8 C 7,8 C 7,2 C 97 % 1009,8 hPa 0,0 l/m 0 min 0 min 0 W/m 6,4 km/h (2 Bft) 95,74 %
18.12.2019 01:42 8,8 C 7,8 C 7,2 C 97 % 1009,9 hPa 0,0 l/m 0 min 0 min 0 W/m 19,3 km/h (3 Bft) 97,87 %
18.12.2019 01:44 8,8 C 7,8 C 7,2 C 97 % 1009,9 hPa 0,0 l/m 0 min 0 min 0 W/m 3,2 km/h (1 Bft) 95,74 %
18.12.2019 01:46 8,8 C 7,8 C 7,2 C 97 % 1009,9 hPa 0,0 l/m 0 min 0 min 0 W/m 3,2 km/h (1 Bft) 97,83 %
18.12.2019 01:48 8,8 C 7,8 C 7,2 C 97 % 1010,0 hPa 0,0 l/m 0 min 0 min 0 W/m 3,2 km/h (1 Bft) 97,87 %
18.12.2019 01:50 8,8 C 7,8 C 7,2 C 97 % 1010,0 hPa 0,0 l/m 0 min 0 min 0 W/m 6,4 km/h (2 Bft) 97,87 %
18.12.2019 01:52 8,8 C 7,8 C 7,2 C 97 % 1010,1 hPa 0,0 l/m 0 min 0 min 0 W/m 12,9 km/h (3 Bft) 95,74 %
18.12.2019 01:54 8,8 C 7,8 C 7,2 C 97 % 1010,1 hPa 0,0 l/m 0 min 0 min 0 W/m 3,2 km/h (1 Bft) 97,87 %
18.12.2019 01:56 8,8 C 7,8 C 7,2 C 97 % 1010,1 hPa 0,0 l/m 0 min 0 min 0 W/m 9,7 km/h (2 Bft) 97,87 %
18.12.2019 01:58 8,8 C 7,8 C 7,2 C 97 % 1010,1 hPa 0,0 l/m 0 min 0 min 0 W/m 3,2 km/h (1 Bft) 95,65 %
18.12.2019 02:00 8,8 C 7,2 C 7,2 C 97 % 1010,1 hPa 0,0 l/m 0 min 0 min 0 W/m 3,2 km/h (1 Bft) 93,62 %
18.12.2019 02:02 8,8 C 7,2 C 7,2 C 97 % 1010,2 hPa 0,0 l/m 0 min 0 min 0 W/m 6,4 km/h (2 Bft) 97,87 %
18.12.2019 02:04 8,7 C 7,2 C 7,2 C 97 % 1010,3 hPa 0,0 l/m 0 min 0 min 0 W/m 6,4 km/h (2 Bft) 97,87 %
18.12.2019 02:06 8,7 C 7,2 C 7,2 C 97 % 1010,4 hPa 0,0 l/m 0 min 0 min 0 W/m 6,4 km/h (2 Bft) 93,62 %
18.12.2019 02:08 8,7 C 7,2 C 6,7 C 97 % 1010,5 hPa 0,0 l/m 0 min 0 min 0 W/m 0,0 km/h (0 Bft) 95,74 %
18.12.2019 02:10 8,7 C 7,2 C 6,7 C 97 % 1010,5 hPa 0,0 l/m 0 min 0 min 0 W/m 0,0 km/h (0 Bft) 95,65 %
18.12.2019 02:12 8,7 C 7,2 C 6,7 C 97 % 1010,5 hPa 0,0 l/m 0 min 0 min 0 W/m 3,2 km/h (1 Bft) 97,87 %
18.12.2019 02:14 8,6 C 7,2 C 6,7 C 97 % 1010,5 hPa 0,0 l/m 0 min 0 min 0 W/m 12,9 km/h (3 Bft) 93,62 %
18.12.2019 02:16 8,6 C 7,2 C 6,7 C 97 % 1010,5 hPa 0,0 l/m 0 min 0 min 0 W/m 6,4 km/h (2 Bft) 95,74 %
18.12.2019 02:18 8,6 C 7,2 C 6,7 C 97 % 1010,6 hPa 0,0 l/m 0 min 0 min 0 W/m 3,2 km/h (1 Bft) 95,74 %
18.12.2019 02:20 8,5 C 7,2 C 6,7 C 97 % 1010,6 hPa 0,0 l/m 0 min 0 min 0 W/m 9,7 km/h (2 Bft) 95,74 %
18.12.2019 02:22 8,5 C 7,2 C 6,7 C 97 % 1010,6 hPa 0,0 l/m 0 min 0 min 0 W/m 6,4 km/h (2 Bft) 95,65 %
18.12.2019 02:24 8,4 C 7,2 C 6,7 C 97 % 1010,7 hPa 0,0 l/m 0 min 0 min 0 W/m 6,4 km/h (2 Bft) 95,74 %
18.12.2019 02:26 8,4 C 7,2 C 6,7 C 97 % 1010,7 hPa 0,0 l/m 0 min 0 min 0 W/m 9,7 km/h (2 Bft) 95,74 %
18.12.2019 02:28 8,4 C 7,2 C 6,7 C 97 % 1010,7 hPa 0,0 l/m 0 min 0 min 0 W/m 9,7 km/h (2 Bft) 95,74 %
18.12.2019 02:30 8,4 C 7,2 C 6,7 C 97 % 1010,6 hPa 0,0 l/m 0 min 0 min 0 W/m 9,7 km/h (2 Bft) 97,87 %
18.12.2019 02:32 8,3 C 7,2 C 6,7 C 97 % 1010,7 hPa 0,0 l/m 0 min 0 min 0 W/m 6,4 km/h (2 Bft) 97,83 %
18.12.2019 02:34 8,3 C 7,2 C 6,7 C 97 % 1010,8 hPa 0,0 l/m 0 min 0 min 0 W/m 12,9 km/h (3 Bft) 97,87 %
18.12.2019 02:36 8,3 C 7,2 C 6,7 C 97 % 1010,9 hPa 0,0 l/m 0 min 0 min 0 W/m 12,9 km/h (3 Bft) 95,74 %
18.12.2019 02:38 8,2 C 7,2 C 6,7 C 97 % 1010,9 hPa 0,0 l/m 0 min 0 min 0 W/m 3,2 km/h (1 Bft) 97,87 %
18.12.2019 02:40 8,2 C 7,2 C 6,7 C 97 % 1010,9 hPa 0,0 l/m 0 min 0 min 0 W/m 3,2 km/h (1 Bft) 97,87 %
18.12.2019 02:42 8,2 C 7,2 C 6,7 C 97 % 1011,0 hPa 0,0 l/m 0 min 0 min 0 W/m 12,9 km/h (3 Bft) 97,87 %
18.12.2019 02:44 8,2 C 7,2 C 6,7 C 97 % 1011,1 hPa 0,0 l/m 0 min 0 min 0 W/m 6,4 km/h (2 Bft) 97,83 %
18.12.2019 02:46 8,2 C 7,2 C 6,7 C 97 % 1011,1 hPa 0,0 l/m 0 min 0 min 0 W/m 6,4 km/h (2 Bft) 95,74 %
18.12.2019 02:48 8,1 C 7,2 C 6,7 C 97 % 1011,0 hPa 0,0 l/m 0 min 0 min 0 W/m 12,9 km/h (3 Bft) 97,87 %
18.12.2019 02:50 8,1 C 7,2 C 6,7 C 96 % 1011,0 hPa 0,0 l/m 0 min 0 min 0 W/m 3,2 km/h (1 Bft) 95,74 %
18.12.2019 02:52 8,1 C 7,2 C 6,7 C 96 % 1011,1 hPa 0,0 l/m 0 min 0 min 0 W/m 6,4 km/h (2 Bft) 97,87 %
18.12.2019 02:54 8,1 C 7,2 C 6,7 C 96 % 1011,3 hPa 0,0 l/m 0 min 0 min 0 W/m 6,4 km/h (2 Bft) 97,87 %
18.12.2019 02:56 8,1 C 7,2 C 6,1 C 96 % 1011,3 hPa 0,0 l/m 0 min 0 min 0 W/m 6,4 km/h (2 Bft) 97,83 %
18.12.2019 02:58 8,1 C 7,2 C 6,1 C 96 % 1011,3 hPa 0,0 l/m 0 min 0 min 0 W/m 0,0 km/h (0 Bft) 97,87 %
18.12.2019 03:00 8,0 C 7,2 C 6,1 C 96 % 1011,2 hPa 0,0 l/m 0 min 0 min 0 W/m 3,2 km/h (1 Bft) 100,00 %
18.12.2019 03:02 8,0 C 7,2 C 6,1 C 96 % 1011,4 hPa 0,0 l/m 0 min 0 min 0 W/m 3,2 km/h (1 Bft) 100,00 %
18.12.2019 03:04 7,9 C 7,2 C 6,1 C 96 % 1011,4 hPa 0,0 l/m 0 min 0 min 0 W/m 3,2 km/h (1 Bft) 100,00 %
18.12.2019 03:06 7,9 C 7,2 C 6,1 C 96 % 1011,4 hPa 0,0 l/m 0 min 0 min 0 W/m 6,4 km/h (2 Bft) 100,00 %
18.12.2019 03:08 7,9 C 7,2 C 6,1 C 97 % 1011,6 hPa 0,0 l/m 0 min 0 min 0 W/m 3,2 km/h (1 Bft) 100,00 %
18.12.2019 03:10 7,9 C 6,7 C 6,1 C 97 % 1011,6 hPa 0,0 l/m 0 min 0 min 0 W/m 6,4 km/h (2 Bft) 97,87 %
18.12.2019 03:12 7,9 C 6,7 C 6,1 C 97 % 1011,6 hPa 0,0 l/m 0 min 0 min 0 W/m 3,2 km/h (1 Bft) 100,00 %
18.12.2019 03:14 7,9 C 6,7 C 6,1 C 96 % 1011,6 hPa 0,0 l/m 0 min 0 min 0 W/m 0,0 km/h (0 Bft) 100,00 %
18.12.2019 03:16 7,9 C 6,7 C 6,1 C 96 % 1011,6 hPa 0,0 l/m 0 min 0 min 0 W/m 3,2 km/h (1 Bft) 100,00 %
18.12.2019 03:18 7,8 C 6,7 C 6,1 C 97 % 1011,6 hPa 0,0 l/m 0 min 0 min 0 W/m 0,0 km/h (0 Bft) 100,00 %
18.12.2019 03:20 7,8 C 6,7 C 6,1 C 97 % 1011,5 hPa 0,0 l/m 0 min 0 min 0 W/m 0,0 km/h (0 Bft) 95,65 %
18.12.2019 03:22 7,8 C 6,7 C 6,1 C 97 % 1011,6 hPa 0,0 l/m 0 min 0 min 0 W/m 0,0 km/h (0 Bft) 100,00 %
18.12.2019 03:24 7,8 C 6,7 C 6,1 C 97 % 1011,7 hPa 0,0 l/m 0 min 0 min 0 W/m 3,2 km/h (1 Bft) 100,00 %
18.12.2019 03:26 7,8 C 6,7 C 6,1 C 97 % 1011,8 hPa 0,0 l/m 0 min 0 min 0 W/m 0,0 km/h (0 Bft) 97,87 %
18.12.2019 03:28 7,8 C 6,7 C 6,1 C 97 % 1011,8 hPa 0,0 l/m 0 min 0 min 0 W/m 0,0 km/h (0 Bft) 100,00 %
18.12.2019 03:30 7,7 C 6,7 C 6,1 C 96 % 1011,9 hPa 0,0 l/m 0 min 0 min 0 W/m 6,4 km/h (2 Bft) 100,00 %
18.12.2019 03:32 7,7 C 6,7 C 5,6 C 96 % 1011,9 hPa 0,0 l/m 0 min 0 min 0 W/m 0,0 km/h (0 Bft) 100,00 %
18.12.2019 03:34 7,7 C 6,7 C 5,6 C 96 % 1012,0 hPa 0,0 l/m 0 min 0 min 0 W/m 3,2 km/h (1 Bft) 97,87 %
18.12.2019 03:36 7,7 C 6,7 C 5,6 C 96 % 1011,9 hPa 0,0 l/m 0 min 0 min 0 W/m 3,2 km/h (1 Bft) 95,74 %
18.12.2019 03:38 7,6 C 6,7 C 5,6 C 96 % 1012,0 hPa 0,0 l/m 0 min 0 min 0 W/m 3,2 km/h (1 Bft) 97,87 %
18.12.2019 03:40 7,6 C 6,7 C 5,6 C 96 % 1012,1 hPa 0,0 l/m 0 min 0 min 0 W/m 3,2 km/h (1 Bft) 97,87 %
18.12.2019 03:42 7,6 C 6,7 C 5,6 C 96 % 1012,1 hPa 0,0 l/m 0 min 0 min 0 W/m 6,4 km/h (2 Bft) 97,83 %
18.12.2019 03:44 7,6 C 6,1 C 5,6 C 96 % 1012,2 hPa 0,0 l/m 0 min 0 min 0 W/m 6,4 km/h (2 Bft) 97,87 %
18.12.2019 03:46 7,5 C 6,1 C 5,6 C 96 % 1012,2 hPa 0,0 l/m 0 min 0 min 0 W/m 3,2 km/h (1 Bft) 97,87 %
18.12.2019 03:48 7,5 C 6,1 C 5,6 C 96 % 1012,3 hPa 0,0 l/m 0 min 0 min 0 W/m 6,4 km/h (2 Bft) 95,74 %
18.12.2019 03:50 7,4 C 6,1 C 5,6 C 96 % 1012,4 hPa 0,0 l/m 0 min 0 min 0 W/m 3,2 km/h (1 Bft) 97,87 %
18.12.2019 03:52 7,4 C 6,1 C 5,6 C 96 % 1012,4 hPa 0,0 l/m 0 min 0 min 0 W/m 0,0 km/h (0 Bft) 97,87 %
18.12.2019 03:54 7,4 C 6,1 C 5,6 C 96 % 1012,4 hPa 0,0 l/m 0 min 0 min 0 W/m 6,4 km/h (2 Bft) 95,65 %
18.12.2019 03:56 7,4 C 6,1 C 5,6 C 96 % 1012,4 hPa 0,0 l/m 0 min 0 min 0 W/m 3,2 km/h (1 Bft) 97,87 %
18.12.2019 03:58 7,3 C 6,1 C 5,6 C 96 % 1012,3 hPa 0,0 l/m 0 min 0 min 0 W/m 3,2 km/h (1 Bft) 97,87 %
18.12.2019 04:00 7,3 C 6,1 C 5,6 C 96 % 1012,3 hPa 0,0 l/m 0 min 0 min 0 W/m 3,2 km/h (1 Bft) 95,74 %
18.12.2019 04:02 7,3 C 6,1 C 5,6 C 96 % 1012,4 hPa 0,0 l/m 0 min 0 min 0 W/m 0,0 km/h (0 Bft) 100,00 %
18.12.2019 04:04 7,3 C 6,1 C 5,6 C 96 % 1012,4 hPa 0,0 l/m 0 min 0 min 0 W/m 0,0 km/h (0 Bft) 93,62 %
18.12.2019 04:06 7,3 C 6,1 C 5,6 C 96 % 1012,4 hPa 0,0 l/m 0 min 0 min 0 W/m 0,0 km/h (0 Bft) 96,88 %
18.12.2019 04:11 7,2 C 6,1 C 5,0 C 96 % 1012,5 hPa 0,0 l/m 0 min 0 min 0 W/m 3,2 km/h (1 Bft) 100,00 %
18.12.2019 04:12 7,2 C 6,1 C 5,0 C 96 % 1012,5 hPa 0,0 l/m 0 min 0 min 0 W/m 3,2 km/h (1 Bft) 95,83 %
18.12.2019 04:14 7,2 C 6,1 C 5,0 C 96 % 1012,5 hPa 0,0 l/m 0 min 0 min 0 W/m 6,4 km/h (2 Bft) 97,87 %
18.12.2019 04:16 7,2 C 6,1 C 5,0 C 96 % 1012,5 hPa 0,0 l/m 0 min 0 min 0 W/m 3,2 km/h (1 Bft) 97,87 %
18.12.2019 04:18 7,1 C 6,1 C 5,0 C 96 % 1012,5 hPa 0,0 l/m 0 min 0 min 0 W/m 0,0 km/h (0 Bft) 97,83 %
18.12.2019 04:20 7,1 C 6,1 C 5,0 C 96 % 1012,6 hPa 0,0 l/m 0 min 0 min 0 W/m 0,0 km/h (0 Bft) 97,87 %
18.12.2019 04:22 7,1 C 6,1 C 5,6 C 96 % 1012,6 hPa 0,0 l/m 0 min 0 min 0 W/m 6,4 km/h (2 Bft) 97,87 %
18.12.2019 04:24 7,1 C 6,1 C 5,6 C 96 % 1012,6 hPa 0,0 l/m 0 min 0 min 0 W/m 0,0 km/h (0 Bft) 95,74 %
18.12.2019 04:26 7,1 C 6,1 C 5,6 C 96 % 1012,6 hPa 0,0 l/m 0 min 0 min 0 W/m 0,0 km/h (0 Bft) 100,00 %
18.12.2019 04:28 7,1 C 6,1 C 5,6 C 96 % 1012,5 hPa 0,0 l/m 0 min 0 min 0 W/m 0,0 km/h (0 Bft) 97,87 %
18.12.2019 04:30 7,1 C 6,1 C 5,6 C 96 % 1012,5 hPa 0,0 l/m 0 min 0 min 0 W/m 3,2 km/h (1 Bft) 100,00 %
18.12.2019 04:32 7,1 C 6,1 C 5,6 C 96 % 1012,5 hPa 0,0 l/m 0 min 0 min 0 W/m 3,2 km/h (1 Bft) 97,87 %
18.12.2019 04:34 7,0 C 6,1 C 5,6 C 96 % 1012,6 hPa 0,0 l/m 0 min 0 min 0 W/m 3,2 km/h (1 Bft) 95,74 %
18.12.2019 04:36 7,0 C 6,1 C 5,6 C 96 % 1012,6 hPa 0,0 l/m 0 min 0 min 0 W/m 3,2 km/h (1 Bft) 95,74 %
18.12.2019 04:38 7,0 C 6,1 C 5,6 C 96 % 1012,6 hPa 0,0 l/m 0 min 0 min 0 W/m 3,2 km/h (1 Bft) 97,87 %
18.12.2019 04:40 7,0 C 6,1 C 5,6 C 97 % 1012,6 hPa 0,0 l/m 0 min 0 min 0 W/m 3,2 km/h (1 Bft) 100,00 %
18.12.2019 04:42 7,0 C 6,1 C 5,6 C 96 % 1012,6 hPa 0,0 l/m 0 min 0 min 0 W/m 6,4 km/h (2 Bft) 100,00 %
18.12.2019 04:44 7,0 C 6,1 C 5,6 C 97 % 1012,6 hPa 0,0 l/m 0 min 0 min 0 W/m 12,9 km/h (3 Bft) 95,74 %
18.12.2019 04:46 7,0 C 6,1 C 5,6 C 96 % 1012,6 hPa 0,0 l/m 0 min 0 min 0 W/m 3,2 km/h (1 Bft) 97,87 %
18.12.2019 04:48 7,0 C 6,1 C 5,6 C 96 % 1012,6 hPa 0,0 l/m 0 min 0 min 0 W/m 3,2 km/h (1 Bft) 97,87 %
18.12.2019 04:50 7,0 C 6,1 C 5,6 C 96 % 1012,7 hPa 0,0 l/m 0 min 0 min 0 W/m 0,0 km/h (0 Bft) 97,87 %
18.12.2019 04:52 7,0 C 6,1 C 5,6 C 97 % 1012,7 hPa 0,0 l/m 0 min 0 min 0 W/m 0,0 km/h (0 Bft) 97,83 %
18.12.2019 04:54 7,0 C 6,1 C 5,6 C 97 % 1012,7 hPa 0,0 l/m 0 min 0 min 0 W/m 6,4 km/h (2 Bft) 97,87 %
18.12.2019 04:56 7,0 C 6,1 C 5,6 C 97 % 1012,7 hPa 0,0 l/m 0 min 0 min 0 W/m 3,2 km/h (1 Bft) 97,87 %
18.12.2019 04:58 6,9 C 6,1 C 5,6 C 97 % 1012,7 hPa 0,0 l/m 0 min 0 min 0 W/m 0,0 km/h (0 Bft) 95,74 %
18.12.2019 05:00 7,0 C 6,1 C 5,6 C 97 % 1012,7 hPa 0,0 l/m 0 min 0 min 0 W/m 0,0 km/h (0 Bft) 97,87 %
18.12.2019 05:02 6,9 C 6,1 C 5,0 C 97 % 1012,7 hPa 0,0 l/m 0 min 0 min 0 W/m 3,2 km/h (1 Bft) 97,87 %
18.12.2019 05:04 6,9 C 6,1 C 5,6 C 97 % 1012,8 hPa 0,0 l/m 0 min 0 min 0 W/m 3,2 km/h (1 Bft) 97,83 %
18.12.2019 05:06 6,9 C 6,1 C 5,0 C 97 % 1012,7 hPa 0,0 l/m 0 min 0 min 0 W/m 3,2 km/h (1 Bft) 95,74 %
18.12.2019 05:08 6,9 C 6,1 C 5,0 C 97 % 1012,7 hPa 0,0 l/m 0 min 0 min 0 W/m 3,2 km/h (1 Bft) 95,74 %
18.12.2019 05:10 6,9 C 6,1 C 5,0 C 97 % 1012,7 hPa 0,0 l/m 0 min 0 min 0 W/m 3,2 km/h (1 Bft) 95,74 %
18.12.2019 05:12 6,9 C 6,1 C 5,0 C 97 % 1012,7 hPa 0,0 l/m 0 min 0 min 0 W/m 3,2 km/h (1 Bft) 95,74 %
18.12.2019 05:14 6,9 C 6,1 C 5,0 C 97 % 1012,8 hPa 0,0 l/m 0 min 0 min 0 W/m 0,0 km/h (0 Bft) 91,49 %
18.12.2019 05:16 6,9 C 6,1 C 5,0 C 97 % 1012,8 hPa 0,0 l/m 0 min 0 min 0 W/m 0,0 km/h (0 Bft) 93,48 %
18.12.2019 05:18 6,9 C 6,1 C 5,0 C 97 % 1012,8 hPa 0,0 l/m 0 min 0 min 0 W/m 0,0 km/h (0 Bft) 95,74 %
18.12.2019 05:20 6,9 C 6,1 C 5,0 C 97 % 1012,8 hPa 0,0 l/m 0 min 0 min 0 W/m 0,0 km/h (0 Bft) 95,74 %
18.12.2019 05:22 6,9 C 6,1 C 5,0 C 97 % 1012,8 hPa 0,0 l/m 0 min 0 min 0 W/m 0,0 km/h (0 Bft) 95,74 %
18.12.2019 05:24 6,9 C 6,1 C 5,6 C 97 % 1012,8 hPa 0,0 l/m 0 min 0 min 0 W/m 0,0 km/h (0 Bft) 95,74 %
18.12.2019 05:26 6,9 C 6,1 C 5,6 C 97 % 1012,9 hPa 0,0 l/m 0 min 0 min 0 W/m 6,4 km/h (2 Bft) 95,74 %
18.12.2019 05:28 6,9 C 6,1 C 5,6 C 97 % 1012,9 hPa 0,0 l/m 0 min 0 min 0 W/m 3,2 km/h (1 Bft) 95,65 %
18.12.2019 05:30 6,9 C 6,1 C 5,6 C 97 % 1012,9 hPa 0,0 l/m 0 min 0 min 0 W/m 3,2 km/h (1 Bft) 97,87 %
18.12.2019 05:32 6,9 C 6,1 C 5,6 C 97 % 1012,9 hPa 0,0 l/m 0 min 0 min 0 W/m 6,4 km/h (2 Bft) 97,87 %
18.12.2019 05:34 6,9 C 6,1 C 5,6 C 97 % 1012,9 hPa 0,0 l/m 0 min 0 min 0 W/m 12,9 km/h (3 Bft) 97,87 %
18.12.2019 05:36 6,9 C 6,1 C 5,6 C 97 % 1012,8 hPa 0,0 l/m 0 min 0 min 0 W/m 12,9 km/h (3 Bft) 95,74 %
18.12.2019 05:38 6,9 C 6,1 C 5,6 C 97 % 1012,9 hPa 0,0 l/m 0 min 0 min 0 W/m 6,4 km/h (2 Bft) 97,83 %
18.12.2019 05:40 6,9 C 6,1 C 5,6 C 97 % 1012,9 hPa 0,0 l/m 0 min 0 min 0 W/m 6,4 km/h (2 Bft) 97,87 %
18.12.2019 05:42 6,9 C 6,1 C 5,6 C 97 % 1012,9 hPa 0,0 l/m 0 min 0 min 0 W/m 6,4 km/h (2 Bft) 93,62 %
18.12.2019 05:44 7,0 C 6,1 C 5,6 C 97 % 1012,9 hPa 0,0 l/m 0 min 0 min 0 W/m 6,4 km/h (2 Bft) 95,74 %
18.12.2019 05:46 7,0 C 6,1 C 5,6 C 97 % 1013,0 hPa 0,0 l/m 0 min 0 min 0 W/m 6,4 km/h (2 Bft) 97,87 %
18.12.2019 05:48 7,0 C 6,1 C 5,6 C 97 % 1013,0 hPa 0,0 l/m 0 min 0 min 0 W/m 3,2 km/h (1 Bft) 97,87 %
18.12.2019 05:50 7,0 C 6,1 C 5,6 C 97 % 1013,0 hPa 0,0 l/m 0 min 0 min 0 W/m 3,2 km/h (1 Bft) 95,65 %
18.12.2019 05:52 7,0 C 6,1 C 5,6 C 97 % 1013,0 hPa 0,0 l/m 0 min 0 min 0 W/m 6,4 km/h (2 Bft) 97,87 %
18.12.2019 05:54 7,0 C 6,1 C 5,6 C 97 % 1013,0 hPa 0,0 l/m 0 min 0 min 0 W/m 3,2 km/h (1 Bft) 97,87 %
18.12.2019 05:56 7,0 C 6,1 C 5,6 C 97 % 1013,0 hPa 0,0 l/m 0 min 0 min 0 W/m 0,0 km/h (0 Bft) 97,87 %
18.12.2019 05:58 7,0 C 6,1 C 5,6 C 97 % 1013,0 hPa 0,0 l/m 0 min 0 min 0 W/m 3,2 km/h (1 Bft) 97,87 %
18.12.2019 06:00 7,0 C 6,1 C 5,6 C 97 % 1013,1 hPa 0,0 l/m 0 min 0 min 0 W/m 3,2 km/h (1 Bft) 97,87 %
18.12.2019 06:02 7,0 C 6,1 C 5,6 C 97 % 1013,2 hPa 0,0 l/m 0 min 0 min 0 W/m 6,4 km/h (2 Bft) 97,83 %
18.12.2019 06:04 7,0 C 6,1 C 5,6 C 97 % 1013,2 hPa 0,0 l/m 0 min 0 min 0 W/m 6,4 km/h (2 Bft) 100,00 %
18.12.2019 06:06 7,0 C 6,1 C 5,6 C 98 % 1013,2 hPa 0,0 l/m 0 min 0 min 0 W/m 12,9 km/h (3 Bft) 100,00 %
18.12.2019 06:08 7,0 C 6,1 C 5,6 C 98 % 1013,3 hPa 0,0 l/m 0 min 0 min 0 W/m 12,9 km/h (3 Bft) 100,00 %
18.12.2019 06:10 7,0 C 6,7 C 5,6 C 98 % 1013,3 hPa 0,0 l/m 0 min 0 min 0 W/m 12,9 km/h (3 Bft) 97,87 %
18.12.2019 06:12 7,1 C 6,7 C 5,6 C 98 % 1013,3 hPa 0,0 l/m 0 min 0 min 0 W/m 16,1 km/h (3 Bft) 100,00 %
18.12.2019 06:14 7,1 C 6,7 C 5,6 C 98 % 1013,3 hPa 0,0 l/m 0 min 0 min 0 W/m 12,9 km/h (3 Bft) 97,83 %
18.12.2019 06:16 7,1 C 6,7 C 5,6 C 98 % 1013,3 hPa 0,0 l/m 0 min 0 min 0 W/m 6,4 km/h (2 Bft) 97,87 %
18.12.2019 06:18 7,1 C 6,7 C 5,6 C 98 % 1013,4 hPa 0,0 l/m 0 min 0 min 0 W/m 16,1 km/h (3 Bft) 97,87 %
18.12.2019 06:20 7,1 C 6,7 C 5,6 C 98 % 1013,4 hPa 0,0 l/m 0 min 0 min 0 W/m 19,3 km/h (3 Bft) 97,83 %
18.12.2019 06:22 7,1 C 6,7 C 5,6 C 98 % 1013,4 hPa 0,0 l/m 0 min 0 min 0 W/m 9,7 km/h (2 Bft) 97,87 %
18.12.2019 06:24 7,1 C 6,7 C 5,6 C 98 % 1013,5 hPa 0,0 l/m 0 min 0 min 0 W/m 6,4 km/h (2 Bft) 93,62 %
18.12.2019 06:26 7,1 C 6,7 C 5,6 C 98 % 1013,6 hPa 0,0 l/m 0 min 0 min 0 W/m 19,3 km/h (3 Bft) 97,83 %
18.12.2019 06:28 7,1 C 6,7 C 5,6 C 98 % 1013,6 hPa 0,0 l/m 0 min 0 min 0 W/m 6,4 km/h (2 Bft) 95,74 %
18.12.2019 06:30 7,1 C 6,7 C 5,6 C 98 % 1013,5 hPa 0,0 l/m 0 min 0 min 0 W/m 3,2 km/h (1 Bft) 97,87 %
18.12.2019 06:32 7,1 C 6,7 C 5,6 C 98 % 1013,6 hPa 0,0 l/m 0 min 0 min 0 W/m 3,2 km/h (1 Bft) 95,74 %
18.12.2019 06:34 7,1 C 6,1 C 5,6 C 98 % 1013,6 hPa 0,0 l/m 0 min 0 min 0 W/m 3,2 km/h (1 Bft) 97,87 %
18.12.2019 06:36 7,1 C 6,1 C 5,6 C 98 % 1013,7 hPa 0,0 l/m 0 min 0 min 0 W/m 3,2 km/h (1 Bft) 97,87 %
18.12.2019 06:38 7,1 C 6,1 C 5,6 C 98 % 1013,7 hPa 0,0 l/m 0 min 0 min 0 W/m 6,4 km/h (2 Bft) 97,83 %
18.12.2019 06:40 7,1 C 6,7 C 5,6 C 98 % 1013,6 hPa 0,0 l/m 0 min 0 min 0 W/m 3,2 km/h (1 Bft) 97,87 %
18.12.2019 06:42 7,1 C 6,1 C 5,6 C 98 % 1013,7 hPa 0,0 l/m 0 min 0 min 0 W/m 3,2 km/h (1 Bft) 95,74 %
18.12.2019 06:44 7,1 C 6,1 C 5,6 C 98 % 1013,8 hPa 0,0 l/m 0 min 0 min 0 W/m 6,4 km/h (2 Bft) 97,87 %
18.12.2019 06:46 7,1 C 6,1 C 5,6 C 98 % 1013,7 hPa 0,0 l/m 0 min 0 min 0 W/m 3,2 km/h (1 Bft) 97,87 %
18.12.2019 06:48 7,0 C 6,1 C 5,6 C 98 % 1013,7 hPa 0,0 l/m 0 min 0 min 0 W/m 0,0 km/h (0 Bft) 97,83 %
18.12.2019 06:50 7,0 C 6,1 C 5,6 C 98 % 1013,7 hPa 0,0 l/m 0 min 0 min 0 W/m 6,4 km/h (2 Bft) 97,87 %
18.12.2019 06:52 7,0 C 6,1 C 5,6 C 98 % 1013,9 hPa 0,0 l/m 0 min 0 min 0 W/m 3,2 km/h (1 Bft) 97,87 %
18.12.2019 06:54 7,0 C 6,7 C 5,6 C 98 % 1013,9 hPa 0,0 l/m 0 min 0 min 0 W/m 6,4 km/h (2 Bft) 97,87 %
18.12.2019 06:56 7,0 C 6,7 C 5,6 C 98 % 1014,0 hPa 0,0 l/m 0 min 0 min 0 W/m 3,2 km/h (1 Bft) 95,74 %
18.12.2019 06:58 7,0 C 6,7 C 5,6 C 98 % 1014,1 hPa 0,0 l/m 0 min 0 min 0 W/m 6,4 km/h (2 Bft) 97,87 %
18.12.2019 07:00 7,0 C 6,7 C 5,6 C 98 % 1014,1 hPa 0,0 l/m 0 min 0 min 0 W/m 6,4 km/h (2 Bft) 100,00 %
18.12.2019 07:02 7,0 C 6,7 C 5,6 C 98 % 1014,1 hPa 0,0 l/m 0 min 0 min 0 W/m 6,4 km/h (2 Bft) 100,00 %
18.12.2019 07:04 7,0 C 6,1 C 5,6 C 98 % 1014,1 hPa 0,0 l/m 0 min 0 min 0 W/m 6,4 km/h (2 Bft) 100,00 %
18.12.2019 07:06 7,0 C 6,7 C 5,6 C 98 % 1014,1 hPa 0,0 l/m 0 min 0 min 0 W/m 6,4 km/h (2 Bft) 97,87 %
18.12.2019 07:08 7,0 C 6,7 C 5,6 C 98 % 1014,2 hPa 0,0 l/m 0 min 0 min 0 W/m 6,4 km/h (2 Bft) 100,00 %
18.12.2019 07:10 7,0 C 6,7 C 5,6 C 98 % 1014,2 hPa 0,0 l/m 0 min 0 min 0 W/m 3,2 km/h (1 Bft) 100,00 %
18.12.2019 07:12 7,0 C 6,7 C 5,6 C 98 % 1014,3 hPa 0,0 l/m 0 min 0 min 0 W/m 6,4 km/h (2 Bft) 97,83 %
18.12.2019 07:14 7,0 C 6,7 C 5,6 C 98 % 1014,3 hPa 0,0 l/m 0 min 0 min 0 W/m 12,9 km/h (3 Bft) 100,00 %
18.12.2019 07:16 7,0 C 6,7 C 5,6 C 98 % 1014,3 hPa 0,0 l/m 0 min 0 min 0 W/m 12,9 km/h (3 Bft) 97,87 %
18.12.2019 07:18 7,0 C 6,1 C 5,6 C 98 % 1014,3 hPa 0,0 l/m 0 min 0 min 0 W/m 3,2 km/h (1 Bft) 100,00 %
18.12.2019 07:20 7,0 C 6,1 C 5,0 C 98 % 1014,3 hPa 0,0 l/m 0 min 0 min 0 W/m 6,4 km/h (2 Bft) 100,00 %
18.12.2019 07:22 6,9 C 6,1 C 5,0 C 98 % 1014,4 hPa 0,0 l/m 0 min 0 min 0 W/m 9,7 km/h (2 Bft) 97,87 %
18.12.2019 07:24 6,9 C 6,1 C 5,0 C 98 % 1014,3 hPa 0,0 l/m 0 min 0 min 0 W/m 12,9 km/h (3 Bft) 97,83 %
18.12.2019 07:26 6,9 C 6,1 C 5,0 C 98 % 1014,4 hPa 0,0 l/m 0 min 0 min 0 W/m 3,2 km/h (1 Bft) 97,87 %
18.12.2019 07:28 6,9 C 6,1 C 5,0 C 98 % 1014,5 hPa 0,0 l/m 0 min 0 min 0 W/m 0,0 km/h (0 Bft) 93,62 %
18.12.2019 07:30 6,9 C 6,1 C 5,0 C 98 % 1014,4 hPa 0,0 l/m 0 min 0 min 0 W/m 0,0 km/h (0 Bft) 95,74 %
18.12.2019 07:32 6,9 C 6,1 C 5,0 C 97 % 1014,4 hPa 0,0 l/m 0 min 0 min 0 W/m 0,0 km/h (0 Bft) 97,87 %
18.12.2019 07:34 6,9 C 5,6 C 5,0 C 97 % 1014,4 hPa 0,0 l/m 0 min 0 min 0 W/m 3,2 km/h (1 Bft) 97,87 %
18.12.2019 07:36 6,8 C 5,6 C 5,0 C 97 % 1014,4 hPa 0,0 l/m 0 min 0 min 0 W/m 0,0 km/h (0 Bft) 97,83 %
18.12.2019 07:38 6,8 C 5,6 C 5,0 C 97 % 1014,5 hPa 0,0 l/m 0 min 0 min 0 W/m 0,0 km/h (0 Bft) 97,87 %
18.12.2019 07:40 6,8 C 5,6 C 5,0 C 97 % 1014,6 hPa 0,0 l/m 0 min 0 min 0 W/m 0,0 km/h (0 Bft) 97,87 %
18.12.2019 07:42 6,8 C 5,6 C 5,0 C 97 % 1014,6 hPa 0,0 l/m 0 min 0 min 0 W/m 0,0 km/h (0 Bft) 97,87 %
18.12.2019 07:44 6,7 C 5,6 C 5,0 C 97 % 1014,7 hPa 0,0 l/m 0 min 0 min 0 W/m 6,4 km/h (2 Bft) 97,87 %
18.12.2019 07:46 6,7 C 5,6 C 5,0 C 97 % 1014,7 hPa 0,0 l/m 0 min 0 min 0 W/m 0,0 km/h (0 Bft) 95,74 %
18.12.2019 07:48 6,7 C 6,1 C 5,0 C 97 % 1014,7 hPa 0,0 l/m 0 min 0 min 0 W/m 12,9 km/h (3 Bft) 97,83 %
18.12.2019 07:50 6,7 C 6,1 C 5,0 C 97 % 1014,7 hPa 0,0 l/m 0 min 0 min 0 W/m 6,4 km/h (2 Bft) 97,87 %
18.12.2019 07:52 6,7 C 5,6 C 5,0 C 97 % 1014,8 hPa 0,0 l/m 0 min 0 min 0 W/m 3,2 km/h (1 Bft) 97,87 %
18.12.2019 07:54 6,7 C 6,1 C 5,0 C 97 % 1014,9 hPa 0,0 l/m 0 min 0 min 0 W/m 6,4 km/h (2 Bft) 97,87 %
18.12.2019 07:56 6,6 C 6,1 C 5,0 C 97 % 1014,9 hPa 0,0 l/m 0 min 0 min 0 W/m 6,4 km/h (2 Bft) 97,87 %
18.12.2019 07:58 6,6 C 5,6 C 5,0 C 97 % 1014,9 hPa 0,0 l/m 0 min 0 min 0 W/m 3,2 km/h (1 Bft) 97,83 %
18.12.2019 08:00 6,6 C 5,6 C 5,0 C 97 % 1014,9 hPa 0,0 l/m 0 min 0 min 0 W/m 3,2 km/h (1 Bft) 95,74 %
18.12.2019 08:02 6,6 C 5,6 C 5,0 C 97 % 1014,9 hPa 0,0 l/m 0 min 0 min 0 W/m 6,4 km/h (2 Bft) 97,87 %
18.12.2019 08:04 6,6 C 5,6 C 5,0 C 97 % 1014,9 hPa 0,0 l/m 0 min 0 min 0 W/m 12,9 km/h (3 Bft) 100,00 %
18.12.2019 08:06 6,6 C 5,6 C 4,4 C 97 % 1015,0 hPa 0,0 l/m 0 min 0 min 0 W/m 12,9 km/h (3 Bft) 100,00 %
18.12.2019 08:08 6,6 C 5,6 C 5,0 C 97 % 1014,9 hPa 0,0 l/m 0 min 0 min 0 W/m 6,4 km/h (2 Bft) 97,87 %
18.12.2019 08:10 6,5 C 5,6 C 5,0 C 97 % 1015,0 hPa 0,0 l/m 0 min 0 min 0 W/m 0,0 km/h (0 Bft) 97,83 %
18.12.2019 08:12 6,5 C 5,6 C 5,0 C 97 % 1015,0 hPa 0,0 l/m 0 min 0 min 0 W/m 3,2 km/h (1 Bft) 100,00 %
18.12.2019 08:14 6,5 C 5,6 C 5,0 C 97 % 1014,9 hPa 0,0 l/m 0 min 0 min 0 W/m 6,4 km/h (2 Bft) 100,00 %
18.12.2019 08:16 6,5 C 5,6 C 5,0 C 97 % 1014,9 hPa 0,0 l/m 0 min 0 min 0 W/m 6,4 km/h (2 Bft) 100,00 %
18.12.2019 08:18 6,5 C 5,6 C 5,0 C 97 % 1015,0 hPa 0,0 l/m 0 min 0 min 0 W/m 6,4 km/h (2 Bft) 97,87 %
18.12.2019 08:20 6,5 C 5,6 C 5,0 C 97 % 1015,0 hPa 0,0 l/m 0 min 0 min 0 W/m 6,4 km/h (2 Bft) 100,00 %
18.12.2019 08:22 6,5 C 6,1 C 5,0 C 97 % 1015,1 hPa 0,0 l/m 0 min 0 min 0 W/m 3,2 km/h (1 Bft) 100,00 %
18.12.2019 08:24 6,5 C 5,6 C 5,0 C 97 % 1015,1 hPa 0,0 l/m 0 min 0 min 0 W/m 0,0 km/h (0 Bft) 100,00 %
18.12.2019 08:26 6,5 C 5,6 C 5,0 C 97 % 1015,1 hPa 0,0 l/m 0 min 0 min 0 W/m 3,2 km/h (1 Bft) 100,00 %
18.12.2019 08:28 6,5 C 5,6 C 5,0 C 97 % 1015,2 hPa 0,0 l/m 0 min 0 min 0 W/m 6,4 km/h (2 Bft) 100,00 %
18.12.2019 08:30 6,5 C 5,6 C 4,4 C 97 % 1015,3 hPa 0,0 l/m 0 min 0 min 0 W/m 3,2 km/h (1 Bft) 100,00 %
18.12.2019 08:32 6,4 C 5,6 C 4,4 C 97 % 1015,3 hPa 0,0 l/m 0 min 0 min 0 W/m 0,0 km/h (0 Bft) 97,87 %
18.12.2019 08:34 6,4 C 5,6 C 4,4 C 97 % 1015,4 hPa 0,0 l/m 0 min 0 min 0 W/m 3,2 km/h (1 Bft) 97,83 %
18.12.2019 08:36 6,4 C 5,6 C 4,4 C 97 % 1015,4 hPa 0,0 l/m 0 min 0 min 0 W/m 3,2 km/h (1 Bft) 97,87 %
18.12.2019 08:38 6,4 C 5,6 C 4,4 C 97 % 1015,5 hPa 0,0 l/m 0 min 0 min 0 W/m 3,2 km/h (1 Bft) 97,87 %
18.12.2019 08:40 6,4 C 5,6 C 4,4 C 97 % 1015,5 hPa 0,0 l/m 0 min 0 min 0 W/m 3,2 km/h (1 Bft) 97,87 %
18.12.2019 08:42 6,4 C 5,6 C 4,4 C 97 % 1015,5 hPa 0,0 l/m 0 min 0 min 0 W/m 3,2 km/h (1 Bft) 97,87 %
18.12.2019 08:44 6,4 C 5,6 C 4,4 C 97 % 1015,6 hPa 0,0 l/m 0 min 0 min 5 W/m 6,4 km/h (2 Bft) 95,65 %
18.12.2019 08:46 6,4 C 5,6 C 4,4 C 97 % 1015,6 hPa 0,0 l/m 0 min 0 min 5 W/m 0,0 km/h (0 Bft) 97,87 %
18.12.2019 08:48 6,3 C 5,6 C 4,4 C 97 % 1015,6 hPa 0,0 l/m 0 min 0 min 5 W/m 9,7 km/h (2 Bft) 97,87 %
18.12.2019 08:50 6,3 C 5,6 C 4,4 C 97 % 1015,6 hPa 0,0 l/m 0 min 0 min 5 W/m 3,2 km/h (1 Bft) 97,87 %
18.12.2019 08:52 6,3 C 5,6 C 4,4 C 97 % 1015,7 hPa 0,0 l/m 0 min 0 min 7 W/m 6,4 km/h (2 Bft) 95,74 %
18.12.2019 08:54 6,3 C 5,6 C 4,4 C 97 % 1015,8 hPa 0,0 l/m 0 min 0 min 7 W/m 3,2 km/h (1 Bft) 95,74 %
18.12.2019 08:56 6,3 C 5,6 C 4,4 C 97 % 1015,8 hPa 0,0 l/m 0 min 0 min 7 W/m 6,4 km/h (2 Bft) 95,65 %
18.12.2019 08:58 6,3 C 5,6 C 4,4 C 97 % 1015,8 hPa 0,0 l/m 0 min 0 min 8 W/m 0,0 km/h (0 Bft) 95,74 %
18.12.2019 09:00 6,3 C 5,6 C 4,4 C 97 % 1015,8 hPa 0,0 l/m 0 min 0 min 9 W/m 0,0 km/h (0 Bft) 91,49 %
18.12.2019 09:02 6,3 C 5,6 C 4,4 C 97 % 1015,8 hPa 0,0 l/m 0 min 0 min 9 W/m 3,2 km/h (1 Bft) 95,74 %
18.12.2019 09:04 6,3 C 5,6 C 4,4 C 97 % 1015,9 hPa 0,0 l/m 0 min 0 min 10 W/m 3,2 km/h (1 Bft) 93,62 %
18.12.2019 09:06 6,3 C 5,6 C 4,4 C 97 % 1015,8 hPa 0,0 l/m 0 min 0 min 11 W/m 3,2 km/h (1 Bft) 95,74 %
18.12.2019 09:08 6,2 C 5,6 C 4,4 C 97 % 1015,8 hPa 0,0 l/m 0 min 0 min 11 W/m 12,9 km/h (3 Bft) 95,65 %
18.12.2019 09:10 6,2 C 5,6 C 4,4 C 97 % 1015,9 hPa 0,0 l/m 0 min 0 min 11 W/m 3,2 km/h (1 Bft) 57,45 %
18.12.2019 09:12 6,2 C 5,6 C 4,4 C 97 % 1015,9 hPa 0,0 l/m 0 min 0 min 12 W/m 3,2 km/h (1 Bft) 88,10 %
18.12.2019 09:14 6,2 C 5,6 C 4,4 C 97 % 1015,9 hPa 0,0 l/m 0 min 0 min 12 W/m 0,0 km/h (0 Bft) 95,74 %
18.12.2019 09:16 6,2 C 5,6 C 4,4 C 97 % 1016,0 hPa 0,0 l/m 0 min 0 min 14 W/m 0,0 km/h (0 Bft) 93,62 %
18.12.2019 09:18 6,2 C 5,6 C 4,4 C 97 % 1016,0 hPa 0,0 l/m 0 min 0 min 15 W/m 0,0 km/h (0 Bft) 93,62 %
18.12.2019 09:20 6,2 C 5,6 C 4,4 C 97 % 1016,0 hPa 0,0 l/m 0 min 0 min 17 W/m 0,0 km/h (0 Bft) 93,48 %
18.12.2019 09:22 6,2 C 5,6 C 4,4 C 97 % 1016,1 hPa 0,0 l/m 0 min 0 min 18 W/m 0,0 km/h (0 Bft) 95,74 %
18.12.2019 09:24 6,2 C 5,6 C 4,4 C 97 % 1016,1 hPa 0,0 l/m 0 min 0 min 19 W/m 0,0 km/h (0 Bft) 95,74 %
18.12.2019 09:26 6,2 C 5,6 C 3,9 C 97 % 1016,1 hPa 0,0 l/m 0 min 0 min 19 W/m 0,0 km/h (0 Bft) 95,74 %
18.12.2019 09:28 6,2 C 5,6 C 3,9 C 97 % 1016,2 hPa 0,0 l/m 0 min 0 min 21 W/m 0,0 km/h (0 Bft) 95,74 %
18.12.2019 09:30 6,2 C 5,6 C 3,9 C 97 % 1016,2 hPa 0,0 l/m 0 min 0 min 21 W/m 0,0 km/h (0 Bft) 93,62 %
18.12.2019 09:32 6,2 C 5,6 C 3,9 C 97 % 1016,2 hPa 0,0 l/m 0 min 0 min 22 W/m 0,0 km/h (0 Bft) 93,48 %
18.12.2019 09:34 6,1 C 5,6 C 3,9 C 97 % 1016,2 hPa 0,0 l/m 0 min 0 min 23 W/m 0,0 km/h (0 Bft) 93,62 %
18.12.2019 09:36 6,1 C 5,6 C 3,9 C 97 % 1016,2 hPa 0,0 l/m 0 min 0 min 25 W/m 0,0 km/h (0 Bft) 97,87 %
18.12.2019 09:38 6,1 C 5,6 C 3,9 C 97 % 1016,3 hPa 0,0 l/m 0 min 0 min 26 W/m 0,0 km/h (0 Bft) 95,74 %
18.12.2019 09:40 6,1 C 5,6 C 3,9 C 97 % 1016,3 hPa 0,0 l/m 0 min 0 min 28 W/m 0,0 km/h (0 Bft) 97,87 %
18.12.2019 09:42 6,1 C 5,6 C 4,4 C 97 % 1016,3 hPa 0,0 l/m 0 min 0 min 28 W/m 0,0 km/h (0 Bft) 97,87 %
18.12.2019 09:44 6,1 C 5,6 C 3,9 C 97 % 1016,3 hPa 0,0 l/m 0 min 0 min 29 W/m 0,0 km/h (0 Bft) 97,83 %
18.12.2019 09:46 6,0 C 5,6 C 4,4 C 97 % 1016,3 hPa 0,0 l/m 0 min 0 min 30 W/m 0,0 km/h (0 Bft) 97,87 %
18.12.2019 09:48 6,0 C 5,6 C 4,4 C 97 % 1016,4 hPa 0,0 l/m 0 min 0 min 31 W/m 0,0 km/h (0 Bft) 95,74 %
18.12.2019 09:50 6,0 C 5,6 C 4,4 C 97 % 1016,4 hPa 0,0 l/m 0 min 0 min 34 W/m 0,0 km/h (0 Bft) 97,87 %
18.12.2019 09:52 6,0 C 5,6 C 4,4 C 97 % 1016,5 hPa 0,0 l/m 0 min 0 min 35 W/m 0,0 km/h (0 Bft) 96,23 %
18.12.2019 09:54 5,9 C 5,6 C 4,4 C 97 % 1016,5 hPa 0,0 l/m 0 min 0 min 41 W/m 12,9 km/h (3 Bft) 91,49 %
18.12.2019 09:56 6,0 C 5,6 C 4,4 C 97 % 1016,5 hPa 0,0 l/m 0 min 0 min 58 W/m 6,4 km/h (2 Bft) 95,65 %
18.12.2019 09:58 5,9 C 5,6 C 4,4 C 97 % 1016,6 hPa 0,0 l/m 0 min 0 min 69 W/m 6,4 km/h (2 Bft) 97,87 %
18.12.2019 10:00 5,9 C 5,6 C 4,4 C 97 % 1016,7 hPa 0,0 l/m 0 min 0 min 70 W/m 6,4 km/h (2 Bft) 97,87 %
18.12.2019 10:02 5,9 C 5,6 C 4,4 C 97 % 1016,7 hPa 0,0 l/m 2 min 0 min 85 W/m 6,4 km/h (2 Bft) 97,87 %
18.12.2019 10:04 6,0 C 5,6 C 4,4 C 97 % 1016,7 hPa 0,0 l/m 2 min 0 min 104 W/m 12,9 km/h (3 Bft) 97,87 %
18.12.2019 10:06 6,0 C 5,6 C 4,4 C 97 % 1016,7 hPa 0,0 l/m 0 min 0 min 81 W/m 3,2 km/h (1 Bft) 97,83 %
18.12.2019 10:08 6,0 C 5,6 C 4,4 C 97 % 1016,7 hPa 0,0 l/m 2 min 0 min 99 W/m 3,2 km/h (1 Bft) 97,87 %
18.12.2019 10:10 6,0 C 6,1 C 4,4 C 97 % 1016,8 hPa 0,0 l/m 2 min 0 min 102 W/m 6,4 km/h (2 Bft) 97,87 %
18.12.2019 10:12 6,0 C 6,7 C 4,4 C 97 % 1016,8 hPa 0,0 l/m 2 min 0 min 106 W/m 6,4 km/h (2 Bft) 93,62 %
18.12.2019 10:14 6,1 C 7,2 C 4,4 C 97 % 1016,8 hPa 0,0 l/m 2 min 0 min 117 W/m 0,0 km/h (0 Bft) 97,87 %
18.12.2019 10:16 6,1 C 8,3 C 4,4 C 97 % 1016,8 hPa 0,0 l/m 2 min 0 min 101 W/m 6,4 km/h (2 Bft) 95,74 %
18.12.2019 10:18 6,1 C 8,9 C 4,4 C 97 % 1016,9 hPa 0,0 l/m 2 min 0 min 108 W/m 0,0 km/h (0 Bft) 97,83 %
18.12.2019 10:20 6,1 C 8,9 C 4,4 C 97 % 1016,9 hPa 0,0 l/m 2 min 0 min 146 W/m 0,0 km/h (0 Bft) 97,87 %
18.12.2019 10:22 6,2 C 8,9 C 4,4 C 97 % 1016,9 hPa 0,0 l/m 2 min 0 min 152 W/m 6,4 km/h (2 Bft) 97,87 %
18.12.2019 10:24 6,2 C 10,0 C 4,4 C 98 % 1016,9 hPa 0,0 l/m 2 min 0 min 156 W/m 3,2 km/h (1 Bft) 97,87 %
18.12.2019 10:26 6,3 C 10,0 C 5,0 C 98 % 1017,0 hPa 0,0 l/m 2 min 0 min 157 W/m 6,4 km/h (2 Bft) 97,87 %
18.12.2019 10:28 6,3 C 10,0 C 5,0 C 98 % 1016,9 hPa 0,0 l/m 2 min 0 min 152 W/m 6,4 km/h (2 Bft) 95,74 %
18.12.2019 10:30 6,4 C 10,0 C 5,0 C 98 % 1016,9 hPa 0,0 l/m 2 min 0 min 152 W/m 6,4 km/h (2 Bft) 97,83 %
18.12.2019 10:32 6,5 C 10,0 C 5,0 C 98 % 1016,9 hPa 0,0 l/m 2 min 0 min 151 W/m 6,4 km/h (2 Bft) 97,87 %
18.12.2019 10:34 6,6 C 10,6 C 5,0 C 98 % 1017,0 hPa 0,0 l/m 2 min 0 min 130 W/m 6,4 km/h (2 Bft) 97,87 %
18.12.2019 10:36 6,7 C 10,6 C 5,0 C 98 % 1017,1 hPa 0,0 l/m 2 min 0 min 128 W/m 12,9 km/h (3 Bft) 97,87 %
18.12.2019 10:38 6,8 C 10,0 C 5,0 C 98 % 1017,1 hPa 0,0 l/m 2 min 0 min 132 W/m 12,9 km/h (3 Bft) 97,87 %
18.12.2019 10:40 6,8 C 9,4 C 5,0 C 98 % 1017,1 hPa 0,0 l/m 2 min 0 min 120 W/m 6,4 km/h (2 Bft) 97,87 %
18.12.2019 10:42 6,9 C 9,4 C 5,0 C 98 % 1017,1 hPa 0,0 l/m 0 min 0 min 82 W/m 6,4 km/h (2 Bft) 95,65 %
18.12.2019 10:44 7,0 C 9,4 C 5,0 C 98 % 1017,1 hPa 0,0 l/m 0 min 0 min 110 W/m 3,2 km/h (1 Bft) 97,87 %
18.12.2019 10:46 7,1 C 10,0 C 5,0 C 98 % 1017,1 hPa 0,0 l/m 2 min 0 min 138 W/m 6,4 km/h (2 Bft) 97,87 %
18.12.2019 10:48 7,1 C 8,9 C 5,0 C 98 % 1017,1 hPa 0,0 l/m 2 min 0 min 143 W/m 12,9 km/h (3 Bft) 97,87 %
18.12.2019 10:50 7,2 C 8,9 C 5,0 C 98 % 1017,1 hPa 0,0 l/m 0 min 0 min 113 W/m 6,4 km/h (2 Bft) 97,87 %
18.12.2019 10:52 7,2 C 8,9 C 5,6 C 98 % 1017,1 hPa 0,0 l/m 2 min 0 min 121 W/m 12,9 km/h (3 Bft) 95,74 %
18.12.2019 10:54 7,3 C 9,4 C 5,6 C 98 % 1017,1 hPa 0,0 l/m 2 min 0 min 123 W/m 12,9 km/h (3 Bft) 97,83 %
18.12.2019 10:56 7,3 C 9,4 C 5,6 C 98 % 1017,1 hPa 0,0 l/m 0 min 0 min 96 W/m 12,9 km/h (3 Bft) 97,87 %
18.12.2019 10:58 7,3 C 9,4 C 5,6 C 98 % 1017,1 hPa 0,0 l/m 2 min 0 min 131 W/m 3,2 km/h (1 Bft) 97,87 %
18.12.2019 11:00 7,4 C 9,4 C 5,6 C 98 % 1017,1 hPa 0,0 l/m 2 min 0 min 155 W/m 6,4 km/h (2 Bft) 97,87 %
18.12.2019 11:02 7,4 C 10,0 C 5,6 C 98 % 1017,1 hPa 0,0 l/m 2 min 0 min 150 W/m 6,4 km/h (2 Bft) 100,00 %
18.12.2019 11:04 7,4 C 10,6 C 5,6 C 98 % 1017,1 hPa 0,0 l/m 2 min 0 min 130 W/m 6,4 km/h (2 Bft) 100,00 %
18.12.2019 11:06 7,5 C 11,1 C 5,6 C 98 % 1017,1 hPa 0,0 l/m 0 min 0 min 111 W/m 6,4 km/h (2 Bft) 95,74 %
18.12.2019 11:08 7,6 C 11,1 C 5,6 C 98 % 1017,1 hPa 0,0 l/m 2 min 0 min 158 W/m 16,1 km/h (3 Bft) 97,87 %
18.12.2019 11:10 7,6 C 12,2 C 6,1 C 98 % 1017,0 hPa 0,0 l/m 2 min 0 min 205 W/m 6,4 km/h (2 Bft) 97,87 %
18.12.2019 11:12 7,7 C 12,2 C 6,1 C 98 % 1017,1 hPa 0,0 l/m 2 min 0 min 209 W/m 12,9 km/h (3 Bft) 97,87 %
18.12.2019 11:14 7,8 C 12,8 C 6,1 C 98 % 1017,1 hPa 0,0 l/m 2 min 0 min 213 W/m 6,4 km/h (2 Bft) 97,83 %
18.12.2019 11:16 7,8 C 13,9 C 6,1 C 98 % 1017,1 hPa 0,0 l/m 2 min 0 min 227 W/m 12,9 km/h (3 Bft) 95,74 %
18.12.2019 11:18 7,9 C 12,8 C 6,1 C 98 % 1017,1 hPa 0,0 l/m 2 min 0 min 229 W/m 16,1 km/h (3 Bft) 93,62 %
18.12.2019 11:20 7,9 C 12,8 C 6,1 C 98 % 1017,2 hPa 0,0 l/m 2 min 0 min 231 W/m 12,9 km/h (3 Bft) 95,74 %
18.12.2019 11:22 8,0 C 12,8 C 6,1 C 98 % 1017,2 hPa 0,0 l/m 2 min 0 min 234 W/m 16,1 km/h (3 Bft) 95,74 %
18.12.2019 11:24 8,1 C 12,8 C 6,1 C 98 % 1017,1 hPa 0,0 l/m 2 min 0 min 237 W/m 6,4 km/h (2 Bft) 95,74 %
18.12.2019 11:26 8,2 C 13,3 C 6,1 C 98 % 1017,1 hPa 0,0 l/m 2 min 0 min 238 W/m 16,1 km/h (3 Bft) 95,65 %
18.12.2019 11:28 8,3 C 13,3 C 6,1 C 97 % 1017,2 hPa 0,0 l/m 2 min 0 min 241 W/m 12,9 km/h (3 Bft) 95,74 %
18.12.2019 11:30 8,3 C 13,9 C 6,7 C 97 % 1017,1 hPa 0,0 l/m 2 min 0 min 242 W/m 6,4 km/h (2 Bft) 95,74 %
18.12.2019 11:32 8,4 C 13,9 C 6,7 C 97 % 1017,2 hPa 0,0 l/m 2 min 0 min 244 W/m 12,9 km/h (3 Bft) 95,74 %
18.12.2019 11:34 8,4 C 13,9 C 6,7 C 97 % 1017,2 hPa 0,0 l/m 2 min 0 min 245 W/m 6,4 km/h (2 Bft) 93,62 %
18.12.2019 11:36 8,5 C 13,3 C 6,7 C 97 % 1017,2 hPa 0,0 l/m 2 min 0 min 248 W/m 16,1 km/h (3 Bft) 93,62 %
18.12.2019 11:38 8,6 C 13,9 C 6,7 C 97 % 1017,2 hPa 0,0 l/m 2 min 0 min 250 W/m 9,7 km/h (2 Bft) 97,83 %
18.12.2019 11:40 8,7 C 13,3 C 6,7 C 96 % 1017,1 hPa 0,0 l/m 2 min 0 min 251 W/m 16,1 km/h (3 Bft) 97,87 %
18.12.2019 11:42 8,8 C 13,3 C 6,7 C 96 % 1017,1 hPa 0,0 l/m 2 min 0 min 252 W/m 12,9 km/h (3 Bft) 97,87 %
18.12.2019 11:44 8,8 C 13,3 C 6,7 C 96 % 1017,1 hPa 0,0 l/m 2 min 0 min 255 W/m 16,1 km/h (3 Bft) 97,87 %
18.12.2019 11:46 8,9 C 13,3 C 6,7 C 95 % 1017,1 hPa 0,0 l/m 2 min 0 min 253 W/m 16,1 km/h (3 Bft) 100,00 %
18.12.2019 11:48 8,9 C 12,8 C 7,2 C 95 % 1017,1 hPa 0,0 l/m 2 min 0 min 255 W/m 6,4 km/h (2 Bft) 100,00 %
18.12.2019 11:50 9,0 C 13,3 C 7,2 C 94 % 1017,1 hPa 0,0 l/m 2 min 0 min 257 W/m 3,2 km/h (1 Bft) 97,83 %
18.12.2019 11:52 9,1 C 12,8 C 7,2 C 94 % 1017,2 hPa 0,0 l/m 2 min 0 min 259 W/m 16,1 km/h (3 Bft) 100,00 %
18.12.2019 11:54 9,1 C 12,8 C 7,2 C 93 % 1017,2 hPa 0,0 l/m 2 min 0 min 258 W/m 16,1 km/h (3 Bft) 100,00 %
18.12.2019 11:56 9,2 C 12,8 C 7,2 C 93 % 1017,2 hPa 0,0 l/m 2 min 0 min 263 W/m 12,9 km/h (3 Bft) 100,00 %
18.12.2019 11:58 9,2 C 11,7 C 7,2 C 93 % 1017,2 hPa 0,0 l/m 2 min 0 min 258 W/m 16,1 km/h (3 Bft) 100,00 %
18.12.2019 12:00 9,2 C 10,6 C 7,2 C 92 % 1017,1 hPa 0,0 l/m 2 min 0 min 236 W/m 19,3 km/h (3 Bft) 100,00 %
18.12.2019 12:02 9,3 C 10,6 C 7,8 C 92 % 1017,1 hPa 0,0 l/m 2 min 0 min 160 W/m 6,4 km/h (2 Bft) 100,00 %
18.12.2019 12:04 9,3 C 11,1 C 7,8 C 91 % 1017,1 hPa 0,0 l/m 2 min 0 min 232 W/m 16,1 km/h (3 Bft) 97,87 %
18.12.2019 12:08 9,4 C 12,2 C 7,8 C 90 % 1017,2 hPa 0,0 l/m 4 min 0 min 261 W/m 22,5 km/h (4 Bft) 98,94 %
18.12.2019 12:10 9,4 C 12,2 C 7,8 C 90 % 1017,2 hPa 0,0 l/m 2 min 0 min 269 W/m 22,5 km/h (4 Bft) 97,87 %
18.12.2019 12:12 9,4 C 12,8 C 7,8 C 89 % 1017,2 hPa 0,0 l/m 2 min 0 min 270 W/m 19,3 km/h (3 Bft) 100,00 %
18.12.2019 12:14 9,5 C 12,8 C 7,8 C 89 % 1017,2 hPa 0,0 l/m 2 min 0 min 271 W/m 16,1 km/h (3 Bft) 100,00 %
18.12.2019 12:16 9,6 C 13,3 C 7,8 C 89 % 1017,2 hPa 0,0 l/m 2 min 0 min 270 W/m 12,9 km/h (3 Bft) 100,00 %
18.12.2019 12:18 9,6 C 12,8 C 7,8 C 89 % 1017,1 hPa 0,0 l/m 2 min 0 min 272 W/m 22,5 km/h (4 Bft) 100,00 %
18.12.2019 12:20 9,6 C 12,8 C 7,8 C 88 % 1017,2 hPa 0,0 l/m 2 min 0 min 271 W/m 25,7 km/h (4 Bft) 100,00 %
18.12.2019 12:22 9,7 C 12,8 C 7,8 C 88 % 1017,2 hPa 0,0 l/m 2 min 0 min 272 W/m 16,1 km/h (3 Bft) 100,00 %
18.12.2019 12:24 9,7 C 13,3 C 7,8 C 88 % 1017,1 hPa 0,0 l/m 2 min 0 min 272 W/m 22,5 km/h (4 Bft) 100,00 %
18.12.2019 12:26 9,7 C 12,8 C 7,8 C 87 % 1017,1 hPa 0,0 l/m 2 min 0 min 272 W/m 29,0 km/h (5 Bft) 100,00 %
18.12.2019 12:28 9,8 C 13,3 C 7,8 C 87 % 1017,1 hPa 0,0 l/m 2 min 0 min 271 W/m 19,3 km/h (3 Bft) 100,00 %
18.12.2019 12:30 9,8 C 13,3 C 8,3 C 87 % 1017,1 hPa 0,0 l/m 2 min 0 min 272 W/m 19,3 km/h (3 Bft) 100,00 %
18.12.2019 12:32 9,9 C 13,9 C 8,3 C 87 % 1017,2 hPa 0,0 l/m 2 min 0 min 272 W/m 12,9 km/h (3 Bft) 100,00 %
18.12.2019 12:34 9,9 C 13,3 C 8,3 C 87 % 1017,2 hPa 0,0 l/m 2 min 0 min 270 W/m 19,3 km/h (3 Bft) 100,00 %
18.12.2019 12:36 10,0 C 13,3 C 8,3 C 86 % 1017,2 hPa 0,0 l/m 2 min 0 min 271 W/m 19,3 km/h (3 Bft) 100,00 %
18.12.2019 12:38 10,1 C 13,9 C 7,8 C 86 % 1017,3 hPa 0,0 l/m 2 min 0 min 273 W/m 12,9 km/h (3 Bft) 100,00 %
18.12.2019 12:40 10,1 C 13,9 C 8,3 C 86 % 1017,3 hPa 0,0 l/m 2 min 0 min 273 W/m 22,5 km/h (4 Bft) 100,00 %
18.12.2019 12:42 10,1 C 13,3 C 8,3 C 86 % 1017,3 hPa 0,0 l/m 2 min 0 min 273 W/m 19,3 km/h (3 Bft) 100,00 %
18.12.2019 12:44 10,2 C 12,8 C 8,3 C 86 % 1017,3 hPa 0,0 l/m 2 min 0 min 271 W/m 22,5 km/h (4 Bft) 100,00 %
18.12.2019 12:46 10,2 C 13,3 C 8,3 C 85 % 1017,3 hPa 0,0 l/m 2 min 0 min 273 W/m 19,3 km/h (3 Bft) 100,00 %
18.12.2019 12:48 10,2 C 12,8 C 8,3 C 85 % 1017,3 hPa 0,0 l/m 2 min 0 min 269 W/m 25,7 km/h (4 Bft) 100,00 %
18.12.2019 12:50 10,2 C 12,8 C 8,3 C 85 % 1017,3 hPa 0,0 l/m 2 min 0 min 270 W/m 19,3 km/h (3 Bft) 97,87 %
18.12.2019 12:52 10,2 C 12,8 C 8,3 C 85 % 1017,3 hPa 0,0 l/m 2 min 0 min 272 W/m 22,5 km/h (4 Bft) 100,00 %
18.12.2019 12:54 10,2 C 13,3 C 8,3 C 85 % 1017,3 hPa 0,0 l/m 2 min 0 min 272 W/m 22,5 km/h (4 Bft) 93,62 %
18.12.2019 12:56 10,3 C 13,3 C 8,3 C 85 % 1017,3 hPa 0,0 l/m 2 min 0 min 273 W/m 19,3 km/h (3 Bft) 95,74 %
18.12.2019 12:58 10,3 C 13,3 C 8,3 C 85 % 1017,4 hPa 0,0 l/m 2 min 0 min 272 W/m 22,5 km/h (4 Bft) 95,74 %
18.12.2019 13:00 10,3 C 13,9 C 8,3 C 84 % 1017,3 hPa 0,0 l/m 2 min 0 min 273 W/m 19,3 km/h (3 Bft) 95,65 %
18.12.2019 13:02 10,3 C 12,8 C 8,3 C 84 % 1017,4 hPa 0,0 l/m 2 min 0 min 272 W/m 19,3 km/h (3 Bft) 91,49 %
18.12.2019 13:04 10,3 C 12,8 C 8,3 C 84 % 1017,4 hPa 0,0 l/m 2 min 0 min 271 W/m 29,0 km/h (5 Bft) 93,62 %
18.12.2019 13:06 10,3 C 13,3 C 8,3 C 84 % 1017,4 hPa 0,0 l/m 2 min 0 min 271 W/m 22,5 km/h (4 Bft) 95,74 %
18.12.2019 13:08 10,3 C 13,3 C 8,3 C 84 % 1017,4 hPa 0,0 l/m 2 min 0 min 271 W/m 22,5 km/h (4 Bft) 93,62 %
18.12.2019 13:10 10,3 C 13,9 C 8,3 C 84 % 1017,4 hPa 0,0 l/m 2 min 0 min 271 W/m 12,9 km/h (3 Bft) 89,36 %
18.12.2019 13:12 10,3 C 14,4 C 8,3 C 84 % 1017,3 hPa 0,0 l/m 2 min 0 min 271 W/m 6,4 km/h (2 Bft) 37,04 %
18.12.2019 13:14 10,4 C 14,4 C 8,3 C 84 % 1017,4 hPa 0,0 l/m 2 min 0 min 269 W/m 12,9 km/h (3 Bft) 95,74 %
18.12.2019 13:16 10,4 C 14,4 C 8,3 C 84 % 1017,3 hPa 0,0 l/m 2 min 0 min 266 W/m 19,3 km/h (3 Bft) 95,74 %
18.12.2019 13:18 10,4 C 13,9 C 8,3 C 84 % 1017,3 hPa 0,0 l/m 2 min 0 min 265 W/m 16,1 km/h (3 Bft) 93,62 %
18.12.2019 13:20 10,4 C 13,9 C 8,3 C 84 % 1017,2 hPa 0,0 l/m 2 min 0 min 265 W/m 12,9 km/h (3 Bft) 95,74 %
18.12.2019 13:22 10,5 C 13,9 C 8,3 C 83 % 1017,2 hPa 0,0 l/m 2 min 0 min 264 W/m 16,1 km/h (3 Bft) 95,65 %
18.12.2019 13:24 10,5 C 13,9 C 8,3 C 83 % 1017,2 hPa 0,0 l/m 2 min 0 min 261 W/m 22,5 km/h (4 Bft) 95,74 %
18.12.2019 13:26 10,5 C 13,3 C 8,3 C 83 % 1017,2 hPa 0,0 l/m 2 min 0 min 264 W/m 19,3 km/h (3 Bft) 95,74 %
18.12.2019 13:28 10,5 C 13,3 C 8,3 C 83 % 1017,2 hPa 0,0 l/m 2 min 0 min 262 W/m 19,3 km/h (3 Bft) 95,74 %
18.12.2019 13:30 10,6 C 13,3 C 8,9 C 82 % 1017,2 hPa 0,0 l/m 2 min 0 min 257 W/m 16,1 km/h (3 Bft) 95,74 %
18.12.2019 13:32 10,6 C 13,9 C 8,9 C 82 % 1017,2 hPa 0,0 l/m 2 min 0 min 258 W/m 19,3 km/h (3 Bft) 95,74 %
18.12.2019 13:34 10,6 C 13,3 C 8,9 C 82 % 1017,2 hPa 0,0 l/m 2 min 0 min 255 W/m 19,3 km/h (3 Bft) 100,00 %
18.12.2019 13:36 10,6 C 13,9 C 8,9 C 82 % 1017,3 hPa 0,0 l/m 2 min 0 min 255 W/m 12,9 km/h (3 Bft) 100,00 %
18.12.2019 13:38 10,7 C 13,9 C 8,9 C 82 % 1017,2 hPa 0,0 l/m 2 min 0 min 251 W/m 16,1 km/h (3 Bft) 97,87 %
18.12.2019 13:40 10,7 C 13,9 C 8,9 C 82 % 1017,3 hPa 0,0 l/m 2 min 0 min 249 W/m 19,3 km/h (3 Bft) 97,87 %
18.12.2019 13:42 10,7 C 13,9 C 8,9 C 82 % 1017,2 hPa 0,0 l/m 2 min 0 min 248 W/m 25,7 km/h (4 Bft) 97,87 %
18.12.2019 13:44 10,7 C 13,3 C 8,9 C 81 % 1017,2 hPa 0,0 l/m 2 min 0 min 246 W/m 12,9 km/h (3 Bft) 100,00 %
18.12.2019 13:46 10,7 C 14,4 C 8,9 C 81 % 1017,3 hPa 0,0 l/m 2 min 0 min 246 W/m 12,9 km/h (3 Bft) 100,00 %
18.12.2019 13:48 10,7 C 13,9 C 8,9 C 81 % 1017,3 hPa 0,0 l/m 2 min 0 min 247 W/m 16,1 km/h (3 Bft) 97,87 %
18.12.2019 13:50 10,8 C 13,9 C 8,9 C 81 % 1017,3 hPa 0,0 l/m 2 min 0 min 244 W/m 12,9 km/h (3 Bft) 100,00 %
18.12.2019 13:52 10,8 C 15,0 C 8,9 C 81 % 1017,3 hPa 0,0 l/m 2 min 0 min 241 W/m 6,4 km/h (2 Bft) 100,00 %
18.12.2019 13:54 10,8 C 14,4 C 8,9 C 81 % 1017,3 hPa 0,0 l/m 2 min 0 min 239 W/m 16,1 km/h (3 Bft) 100,00 %
18.12.2019 13:56 10,8 C 14,4 C 8,9 C 81 % 1017,3 hPa 0,0 l/m 2 min 0 min 233 W/m 16,1 km/h (3 Bft) 97,87 %
18.12.2019 13:58 10,8 C 13,9 C 8,9 C 81 % 1017,3 hPa 0,0 l/m 2 min 0 min 215 W/m 19,3 km/h (3 Bft) 97,83 %
18.12.2019 14:00 10,8 C 13,3 C 8,9 C 80 % 1017,3 hPa 0,0 l/m 2 min 0 min 215 W/m 19,3 km/h (3 Bft) 100,00 %
18.12.2019 14:02 10,8 C 13,3 C 8,9 C 80 % 1017,3 hPa 0,0 l/m 2 min 0 min 204 W/m 12,9 km/h (3 Bft) 100,00 %
18.12.2019 14:04 10,8 C 13,9 C 8,9 C 80 % 1017,3 hPa 0,0 l/m 2 min 0 min 204 W/m 19,3 km/h (3 Bft) 100,00 %
18.12.2019 14:06 10,8 C 13,3 C 8,9 C 80 % 1017,3 hPa 0,0 l/m 2 min 0 min 206 W/m 16,1 km/h (3 Bft) 100,00 %
18.12.2019 14:08 10,8 C 12,8 C 8,9 C 80 % 1017,4 hPa 0,0 l/m 2 min 0 min 198 W/m 16,1 km/h (3 Bft) 100,00 %
18.12.2019 14:10 10,8 C 12,8 C 8,9 C 80 % 1017,4 hPa 0,0 l/m 2 min 0 min 200 W/m 16,1 km/h (3 Bft) 100,00 %
18.12.2019 14:12 10,8 C 13,3 C 8,9 C 80 % 1017,4 hPa 0,0 l/m 2 min 0 min 183 W/m 12,9 km/h (3 Bft) 100,00 %
18.12.2019 14:14 10,8 C 13,3 C 8,3 C 80 % 1017,3 hPa 0,0 l/m 2 min 0 min 200 W/m 12,9 km/h (3 Bft) 100,00 %
18.12.2019 14:16 10,8 C 13,3 C 8,3 C 80 % 1017,3 hPa 0,0 l/m 2 min 0 min 197 W/m 16,1 km/h (3 Bft) 97,87 %
18.12.2019 14:18 10,8 C 13,3 C 8,3 C 80 % 1017,3 hPa 0,0 l/m 2 min 0 min 185 W/m 16,1 km/h (3 Bft) 100,00 %
18.12.2019 14:20 10,8 C 12,8 C 8,3 C 80 % 1017,4 hPa 0,0 l/m 2 min 0 min 183 W/m 19,3 km/h (3 Bft) 100,00 %
18.12.2019 14:22 10,8 C 12,8 C 8,3 C 80 % 1017,3 hPa 0,0 l/m 2 min 0 min 171 W/m 12,9 km/h (3 Bft) 100,00 %
18.12.2019 14:24 10,8 C 12,8 C 8,3 C 80 % 1017,4 hPa 0,0 l/m 2 min 0 min 165 W/m 12,9 km/h (3 Bft) 100,00 %
18.12.2019 14:26 10,8 C 12,8 C 8,3 C 80 % 1017,4 hPa 0,0 l/m 2 min 0 min 166 W/m 12,9 km/h (3 Bft) 100,00 %
18.12.2019 14:28 10,8 C 12,8 C 8,3 C 80 % 1017,4 hPa 0,0 l/m 2 min 0 min 164 W/m 6,4 km/h (2 Bft) 95,74 %
18.12.2019 14:30 10,8 C 12,8 C 8,3 C 80 % 1017,4 hPa 0,0 l/m 2 min 0 min 172 W/m 12,9 km/h (3 Bft) 100,00 %
18.12.2019 14:32 10,7 C 11,7 C 8,3 C 80 % 1017,3 hPa 0,0 l/m 2 min 0 min 175 W/m 12,9 km/h (3 Bft) 100,00 %
18.12.2019 14:34 10,7 C 10,6 C 8,3 C 80 % 1017,4 hPa 0,0 l/m 2 min 0 min 172 W/m 12,9 km/h (3 Bft) 100,00 %
18.12.2019 14:36 10,7 C 10,0 C 8,3 C 80 % 1017,4 hPa 0,0 l/m 2 min 0 min 172 W/m 16,1 km/h (3 Bft) 97,87 %
18.12.2019 14:38 10,7 C 10,0 C 8,3 C 80 % 1017,3 hPa 0,0 l/m 2 min 0 min 150 W/m 19,3 km/h (3 Bft) 100,00 %
18.12.2019 14:40 10,6 C 9,4 C 8,3 C 80 % 1017,3 hPa 0,0 l/m 0 min 0 min 79 W/m 19,3 km/h (3 Bft) 100,00 %
18.12.2019 14:42 10,6 C 9,4 C 8,3 C 80 % 1017,3 hPa 0,0 l/m 0 min 0 min 44 W/m 16,1 km/h (3 Bft) 100,00 %
18.12.2019 14:44 10,6 C 9,4 C 8,3 C 80 % 1017,4 hPa 0,0 l/m 0 min 0 min 43 W/m 6,4 km/h (2 Bft) 97,83 %
18.12.2019 14:46 10,5 C 9,4 C 8,3 C 80 % 1017,4 hPa 0,0 l/m 0 min 0 min 44 W/m 12,9 km/h (3 Bft) 97,87 %
18.12.2019 14:48 10,5 C 9,4 C 8,3 C 80 % 1017,4 hPa 0,0 l/m 0 min 0 min 44 W/m 12,9 km/h (3 Bft) 97,87 %
18.12.2019 14:50 10,4 C 9,4 C 8,3 C 80 % 1017,4 hPa 0,0 l/m 0 min 0 min 45 W/m 19,3 km/h (3 Bft) 100,00 %
18.12.2019 14:52 10,4 C 9,4 C 8,3 C 81 % 1017,4 hPa 0,0 l/m 0 min 0 min 42 W/m 19,3 km/h (3 Bft) 100,00 %
18.12.2019 14:54 10,3 C 9,4 C 8,3 C 80 % 1017,4 hPa 0,0 l/m 0 min 0 min 42 W/m 12,9 km/h (3 Bft) 97,87 %
18.12.2019 14:56 10,3 C 9,4 C 8,3 C 80 % 1017,4 hPa 0,0 l/m 0 min 0 min 40 W/m 16,1 km/h (3 Bft) 97,83 %
18.12.2019 14:58 10,3 C 9,4 C 8,3 C 80 % 1017,4 hPa 0,0 l/m 0 min 0 min 39 W/m 16,1 km/h (3 Bft) 97,87 %
18.12.2019 15:00 10,2 C 9,4 C 8,3 C 80 % 1017,5 hPa 0,0 l/m 0 min 0 min 40 W/m 16,1 km/h (3 Bft) 97,87 %
18.12.2019 15:02 10,2 C 9,4 C 8,3 C 81 % 1017,5 hPa 0,0 l/m 0 min 0 min 42 W/m 22,5 km/h (4 Bft) 100,00 %
18.12.2019 15:04 10,2 C 9,4 C 8,3 C 81 % 1017,5 hPa 0,0 l/m 0 min 0 min 42 W/m 19,3 km/h (3 Bft) 95,74 %
18.12.2019 15:06 10,1 C 9,4 C 8,3 C 81 % 1017,5 hPa 0,0 l/m 0 min 0 min 42 W/m 12,9 km/h (3 Bft) 93,62 %
18.12.2019 15:08 10,1 C 9,4 C 7,8 C 81 % 1017,4 hPa 0,0 l/m 0 min 0 min 42 W/m 12,9 km/h (3 Bft) 93,48 %
18.12.2019 15:10 10,1 C 8,9 C 8,3 C 82 % 1017,5 hPa 0,0 l/m 0 min 0 min 42 W/m 12,9 km/h (3 Bft) 93,62 %
18.12.2019 15:12 10,1 C 8,9 C 7,8 C 82 % 1017,5 hPa 0,0 l/m 0 min 0 min 42 W/m 6,4 km/h (2 Bft) 93,62 %
18.12.2019 15:14 10,0 C 8,9 C 7,8 C 82 % 1017,5 hPa 0,0 l/m 0 min 0 min 42 W/m 16,1 km/h (3 Bft) 93,62 %
18.12.2019 15:16 10,0 C 8,9 C 7,8 C 82 % 1017,5 hPa 0,0 l/m 0 min 0 min 42 W/m 6,4 km/h (2 Bft) 93,62 %
18.12.2019 15:18 9,9 C 8,9 C 7,8 C 82 % 1017,5 hPa 0,0 l/m 0 min 0 min 40 W/m 12,9 km/h (3 Bft) 93,48 %
18.12.2019 15:20 9,9 C 8,9 C 7,8 C 82 % 1017,5 hPa 0,0 l/m 0 min 0 min 40 W/m 6,4 km/h (2 Bft) 91,49 %
18.12.2019 15:22 9,9 C 8,9 C 7,8 C 83 % 1017,5 hPa 0,0 l/m 0 min 0 min 40 W/m 12,9 km/h (3 Bft) 93,62 %
18.12.2019 15:24 9,8 C 8,9 C 7,8 C 83 % 1017,6 hPa 0,0 l/m 0 min 0 min 40 W/m 6,4 km/h (2 Bft) 93,62 %
18.12.2019 15:26 9,8 C 8,9 C 7,8 C 83 % 1017,5 hPa 0,0 l/m 0 min 0 min 40 W/m 6,4 km/h (2 Bft) 91,49 %
18.12.2019 15:28 9,8 C 8,9 C 7,8 C 83 % 1017,5 hPa 0,0 l/m 0 min 0 min 39 W/m 6,4 km/h (2 Bft) 91,49 %
18.12.2019 15:30 9,8 C 8,9 C 7,8 C 83 % 1017,6 hPa 0,0 l/m 0 min 0 min 39 W/m 12,9 km/h (3 Bft) 93,48 %
18.12.2019 15:32 9,7 C 8,9 C 7,8 C 83 % 1017,6 hPa 0,0 l/m 0 min 0 min 38 W/m 12,9 km/h (3 Bft) 93,62 %
18.12.2019 15:34 9,7 C 8,9 C 7,8 C 83 % 1017,6 hPa 0,0 l/m 0 min 0 min 37 W/m 12,9 km/h (3 Bft) 95,74 %
18.12.2019 15:36 9,7 C 8,9 C 7,8 C 83 % 1017,6 hPa 0,0 l/m 0 min 0 min 38 W/m 12,9 km/h (3 Bft) 95,74 %
18.12.2019 15:38 9,7 C 8,9 C 7,8 C 84 % 1017,6 hPa 0,0 l/m 0 min 0 min 37 W/m 6,4 km/h (2 Bft) 93,62 %
18.12.2019 15:40 9,6 C 8,9 C 7,2 C 83 % 1017,6 hPa 0,0 l/m 0 min 0 min 35 W/m 12,9 km/h (3 Bft) 95,74 %
18.12.2019 15:42 9,6 C 8,9 C 7,2 C 84 % 1017,6 hPa 0,0 l/m 0 min 0 min 33 W/m 6,4 km/h (2 Bft) 95,65 %
18.12.2019 15:44 9,6 C 8,3 C 7,2 C 84 % 1017,6 hPa 0,0 l/m 0 min 0 min 32 W/m 3,2 km/h (1 Bft) 95,74 %
18.12.2019 15:46 9,6 C 8,3 C 6,7 C 84 % 1017,5 hPa 0,0 l/m 0 min 0 min 32 W/m 3,2 km/h (1 Bft) 93,62 %
18.12.2019 15:48 9,6 C 8,3 C 6,7 C 84 % 1017,5 hPa 0,0 l/m 0 min 0 min 31 W/m 6,4 km/h (2 Bft) 95,74 %
18.12.2019 15:50 9,5 C 8,3 C 6,7 C 84 % 1017,5 hPa 0,0 l/m 0 min 0 min 28 W/m 6,4 km/h (2 Bft) 95,74 %
18.12.2019 15:52 9,5 C 8,3 C 6,7 C 84 % 1017,5 hPa 0,0 l/m 0 min 0 min 26 W/m 3,2 km/h (1 Bft) 95,74 %
18.12.2019 15:54 9,4 C 8,3 C 6,7 C 84 % 1017,5 hPa 0,0 l/m 0 min 0 min 26 W/m 6,4 km/h (2 Bft) 93,48 %
18.12.2019 15:56 9,4 C 8,3 C 6,7 C 84 % 1017,4 hPa 0,0 l/m 0 min 0 min 24 W/m 12,9 km/h (3 Bft) 97,87 %
18.12.2019 15:58 9,4 C 8,3 C 7,2 C 84 % 1017,4 hPa 0,0 l/m 0 min 0 min 22 W/m 6,4 km/h (2 Bft) 97,87 %
18.12.2019 16:00 9,3 C 8,3 C 6,7 C 84 % 1017,5 hPa 0,0 l/m 0 min 0 min 20 W/m 6,4 km/h (2 Bft) 97,87 %
18.12.2019 16:02 9,3 C 8,3 C 6,7 C 84 % 1017,5 hPa 0,0 l/m 0 min 0 min 19 W/m 6,4 km/h (2 Bft) 100,00 %
18.12.2019 16:04 9,3 C 8,3 C 6,7 C 84 % 1017,4 hPa 0,0 l/m 0 min 0 min 18 W/m 6,4 km/h (2 Bft) 95,74 %
18.12.2019 16:06 9,3 C 7,8 C 6,7 C 84 % 1017,5 hPa 0,0 l/m 0 min 0 min 17 W/m 3,2 km/h (1 Bft) 95,65 %
18.12.2019 16:08 9,2 C 7,8 C 6,7 C 84 % 1017,5 hPa 0,0 l/m 0 min 0 min 15 W/m 6,4 km/h (2 Bft) 100,00 %
18.12.2019 16:10 9,2 C 7,8 C 6,7 C 84 % 1017,5 hPa 0,0 l/m 0 min 0 min 13 W/m 6,4 km/h (2 Bft) 100,00 %
18.12.2019 16:12 9,2 C 7,8 C 6,7 C 85 % 1017,5 hPa 0,0 l/m 0 min 0 min 12 W/m 12,9 km/h (3 Bft) 97,87 %
18.12.2019 16:14 9,1 C 7,8 C 6,7 C 85 % 1017,5 hPa 0,0 l/m 0 min 0 min 11 W/m 6,4 km/h (2 Bft) 100,00 %
18.12.2019 16:16 9,1 C 7,8 C 6,7 C 85 % 1017,4 hPa 0,0 l/m 0 min 0 min 11 W/m 6,4 km/h (2 Bft) 95,65 %
18.12.2019 16:18 9,0 C 7,8 C 6,7 C 85 % 1017,4 hPa 0,0 l/m 0 min 0 min 9 W/m 16,1 km/h (3 Bft) 100,00 %
18.12.2019 16:20 8,9 C 7,2 C 6,7 C 85 % 1017,3 hPa 0,0 l/m 0 min 0 min 9 W/m 6,4 km/h (2 Bft) 100,00 %
18.12.2019 16:22 8,9 C 7,2 C 6,7 C 85 % 1017,3 hPa 0,0 l/m 0 min 0 min 7 W/m 12,9 km/h (3 Bft) 100,00 %
18.12.2019 16:24 8,8 C 7,2 C 6,7 C 85 % 1017,4 hPa 0,0 l/m 0 min 0 min 7 W/m 12,9 km/h (3 Bft) 97,87 %
18.12.2019 16:26 8,8 C 7,2 C 6,7 C 85 % 1017,4 hPa 0,0 l/m 0 min 0 min 6 W/m 12,9 km/h (3 Bft) 97,87 %
18.12.2019 16:28 8,8 C 7,2 C 6,1 C 85 % 1017,4 hPa 0,0 l/m 0 min 0 min 5 W/m 12,9 km/h (3 Bft) 100,00 %
18.12.2019 16:30 8,7 C 7,2 C 6,1 C 85 % 1017,3 hPa 0,0 l/m 0 min 0 min 1 W/m 6,4 km/h (2 Bft) 100,00 %
18.12.2019 16:32 8,7 C 7,2 C 6,1 C 86 % 1017,3 hPa 0,0 l/m 0 min 0 min 0 W/m 6,4 km/h (2 Bft) 100,00 %
18.12.2019 16:34 8,6 C 7,2 C 6,1 C 86 % 1017,2 hPa 0,0 l/m 0 min 0 min 0 W/m 12,9 km/h (3 Bft) 97,87 %
18.12.2019 16:36 8,6 C 7,2 C 6,1 C 86 % 1017,1 hPa 0,0 l/m 0 min 0 min 0 W/m 12,9 km/h (3 Bft) 100,00 %
18.12.2019 16:38 8,5 C 6,7 C 6,1 C 86 % 1017,1 hPa 0,0 l/m 0 min 0 min 0 W/m 6,4 km/h (2 Bft) 100,00 %
18.12.2019 16:40 8,4 C 6,7 C 6,1 C 86 % 1017,1 hPa 0,0 l/m 0 min 0 min 0 W/m 6,4 km/h (2 Bft) 100,00 %
18.12.2019 16:42 8,4 C 6,7 C 6,1 C 86 % 1017,1 hPa 0,0 l/m 0 min 0 min 0 W/m 16,1 km/h (3 Bft) 100,00 %
18.12.2019 16:44 8,3 C 6,7 C 6,1 C 86 % 1017,1 hPa 0,0 l/m 0 min 0 min 0 W/m 12,9 km/h (3 Bft) 100,00 %
18.12.2019 16:46 8,3 C 6,7 C 5,6 C 86 % 1017,1 hPa 0,0 l/m 0 min 0 min 0 W/m 6,4 km/h (2 Bft) 97,87 %
18.12.2019 16:48 8,2 C 6,7 C 5,6 C 86 % 1017,1 hPa 0,0 l/m 0 min 0 min 0 W/m 6,4 km/h (2 Bft) 97,87 %
18.12.2019 16:50 8,2 C 6,7 C 5,6 C 87 % 1017,1 hPa 0,0 l/m 0 min 0 min 0 W/m 6,4 km/h (2 Bft) 100,00 %
18.12.2019 16:52 8,2 C 6,7 C 5,6 C 86 % 1017,1 hPa 0,0 l/m 0 min 0 min 0 W/m 6,4 km/h (2 Bft) 100,00 %
18.12.2019 16:54 8,1 C 6,7 C 5,6 C 87 % 1017,1 hPa 0,0 l/m 0 min 0 min 0 W/m 6,4 km/h (2 Bft) 97,87 %
18.12.2019 16:56 8,1 C 6,7 C 5,6 C 87 % 1017,1 hPa 0,0 l/m 0 min 0 min 0 W/m 12,9 km/h (3 Bft) 95,74 %
18.12.2019 16:58 8,0 C 6,7 C 5,6 C 87 % 1017,0 hPa 0,0 l/m 0 min 0 min 0 W/m 6,4 km/h (2 Bft) 100,00 %
18.12.2019 17:00 7,9 C 6,7 C 5,6 C 87 % 1017,0 hPa 0,0 l/m 0 min 0 min 0 W/m 6,4 km/h (2 Bft) 97,87 %
18.12.2019 17:02 7,9 C 6,7 C 5,6 C 87 % 1017,0 hPa 0,0 l/m 0 min 0 min 0 W/m 16,1 km/h (3 Bft) 97,87 %
18.12.2019 17:04 7,9 C 6,7 C 5,6 C 87 % 1017,0 hPa 0,0 l/m 0 min 0 min 0 W/m 12,9 km/h (3 Bft) 97,83 %
18.12.2019 17:06 7,8 C 6,7 C 5,6 C 87 % 1017,1 hPa 0,0 l/m 0 min 0 min 0 W/m 6,4 km/h (2 Bft) 97,87 %
18.12.2019 17:08 7,8 C 6,7 C 5,6 C 87 % 1017,1 hPa 0,0 l/m 0 min 0 min 0 W/m 6,4 km/h (2 Bft) 95,74 %
18.12.2019 17:10 7,8 C 6,7 C 5,6 C 88 % 1017,0 hPa 0,0 l/m 0 min 0 min 0 W/m 12,9 km/h (3 Bft) 97,87 %
18.12.2019 17:12 7,7 C 6,7 C 5,6 C 88 % 1017,0 hPa 0,0 l/m 0 min 0 min 0 W/m 12,9 km/h (3 Bft) 95,74 %
18.12.2019 17:14 7,7 C 6,7 C 5,6 C 88 % 1017,0 hPa 0,0 l/m 0 min 0 min 0 W/m 19,3 km/h (3 Bft) 95,65 %
18.12.2019 17:16 7,7 C 6,7 C 5,6 C 88 % 1017,1 hPa 0,0 l/m 0 min 0 min 0 W/m 16,1 km/h (3 Bft) 97,87 %
18.12.2019 17:18 7,7 C 6,7 C 5,6 C 88 % 1017,1 hPa 0,0 l/m 0 min 0 min 0 W/m 19,3 km/h (3 Bft) 95,74 %
18.12.2019 17:20 7,6 C 6,7 C 6,1 C 88 % 1017,1 hPa 0,0 l/m 0 min 0 min 0 W/m 19,3 km/h (3 Bft) 97,87 %
18.12.2019 17:22 7,6 C 6,7 C 6,1 C 88 % 1017,0 hPa 0,0 l/m 0 min 0 min 0 W/m 16,1 km/h (3 Bft) 97,87 %
18.12.2019 17:24 7,6 C 6,7 C 6,1 C 88 % 1017,0 hPa 0,0 l/m 0 min 0 min 0 W/m 16,1 km/h (3 Bft) 97,87 %
18.12.2019 17:26 7,6 C 6,7 C 6,1 C 88 % 1016,9 hPa 0,0 l/m 0 min 0 min 0 W/m 16,1 km/h (3 Bft) 97,83 %
18.12.2019 17:28 7,6 C 6,7 C 6,1 C 88 % 1016,9 hPa 0,0 l/m 0 min 0 min 0 W/m 22,5 km/h (4 Bft) 97,87 %
18.12.2019 17:30 7,6 C 6,7 C 6,1 C 88 % 1016,9 hPa 0,0 l/m 0 min 0 min 0 W/m 19,3 km/h (3 Bft) 97,87 %
18.12.2019 17:32 7,6 C 6,7 C 6,1 C 88 % 1016,9 hPa 0,0 l/m 0 min 0 min 0 W/m 16,1 km/h (3 Bft) 97,87 %
18.12.2019 17:34 7,6 C 6,7 C 5,6 C 88 % 1016,9 hPa 0,0 l/m 0 min 0 min 0 W/m 12,9 km/h (3 Bft) 97,87 %
18.12.2019 17:36 7,6 C 6,7 C 5,6 C 88 % 1016,9 hPa 0,0 l/m 0 min 0 min 0 W/m 16,1 km/h (3 Bft) 95,74 %
18.12.2019 17:38 7,6 C 6,7 C 5,6 C 88 % 1016,8 hPa 0,0 l/m 0 min 0 min 0 W/m 16,1 km/h (3 Bft) 97,83 %
18.12.2019 17:40 7,6 C 6,7 C 5,6 C 88 % 1016,8 hPa 0,0 l/m 0 min 0 min 0 W/m 6,4 km/h (2 Bft) 97,87 %
18.12.2019 17:42 7,5 C 6,7 C 5,6 C 88 % 1016,8 hPa 0,0 l/m 0 min 0 min 0 W/m 19,3 km/h (3 Bft) 100,00 %
18.12.2019 17:44 7,5 C 6,1 C 5,6 C 88 % 1016,7 hPa 0,0 l/m 0 min 0 min 0 W/m 12,9 km/h (3 Bft) 97,87 %
18.12.2019 17:46 7,5 C 6,1 C 5,6 C 88 % 1016,7 hPa 0,0 l/m 0 min 0 min 0 W/m 6,4 km/h (2 Bft) 100,00 %
18.12.2019 17:48 7,4 C 6,1 C 5,6 C 88 % 1016,7 hPa 0,0 l/m 0 min 0 min 0 W/m 12,9 km/h (3 Bft) 95,74 %
18.12.2019 17:50 7,4 C 6,1 C 5,6 C 88 % 1016,7 hPa 0,0 l/m 0 min 0 min 0 W/m 6,4 km/h (2 Bft) 100,00 %
18.12.2019 17:52 7,4 C 6,1 C 5,0 C 88 % 1016,7 hPa 0,0 l/m 0 min 0 min 0 W/m 6,4 km/h (2 Bft) 100,00 %
18.12.2019 17:54 7,4 C 6,1 C 5,0 C 88 % 1016,6 hPa 0,0 l/m 0 min 0 min 0 W/m 16,1 km/h (3 Bft) 100,00 %
18.12.2019 17:56 7,3 C 6,1 C 5,0 C 88 % 1016,7 hPa 0,0 l/m 0 min 0 min 0 W/m 12,9 km/h (3 Bft) 97,87 %
18.12.2019 17:58 7,3 C 6,1 C 5,0 C 88 % 1016,7 hPa 0,0 l/m 0 min 0 min 0 W/m 6,4 km/h (2 Bft) 100,00 %
18.12.2019 18:00 7,3 C 6,1 C 5,0 C 88 % 1016,6 hPa 0,0 l/m 0 min 0 min 0 W/m 12,9 km/h (3 Bft) 100,00 %
18.12.2019 18:02 7,2 C 6,1 C 5,0 C 88 % 1016,6 hPa 0,0 l/m 0 min 0 min 0 W/m 6,4 km/h (2 Bft) 97,83 %
18.12.2019 18:04 7,2 C 6,1 C 5,0 C 88 % 1016,6 hPa 0,0 l/m 0 min 0 min 0 W/m 12,9 km/h (3 Bft) 97,87 %
18.12.2019 18:08 7,2 C 6,1 C 5,0 C 89 % 1016,7 hPa 0,0 l/m 0 min 0 min 0 W/m 12,9 km/h (3 Bft) 97,87 %
18.12.2019 18:10 7,1 C 6,1 C 5,0 C 89 % 1016,7 hPa 0,0 l/m 0 min 0 min 0 W/m 6,4 km/h (2 Bft) 97,87 %
18.12.2019 18:12 7,1 C 6,1 C 5,0 C 89 % 1016,6 hPa 0,0 l/m 0 min 0 min 0 W/m 12,9 km/h (3 Bft) 97,83 %
18.12.2019 18:14 7,1 C 6,1 C 5,0 C 89 % 1016,5 hPa 0,0 l/m 0 min 0 min 0 W/m 16,1 km/h (3 Bft) 95,74 %
18.12.2019 18:16 7,1 C 6,1 C 5,0 C 89 % 1016,5 hPa 0,0 l/m 0 min 0 min 0 W/m 12,9 km/h (3 Bft) 95,74 %
18.12.2019 18:18 7,1 C 6,1 C 5,0 C 89 % 1016,4 hPa 0,0 l/m 0 min 0 min 0 W/m 12,9 km/h (3 Bft) 97,87 %
18.12.2019 18:20 7,1 C 6,1 C 5,0 C 89 % 1016,4 hPa 0,0 l/m 0 min 0 min 0 W/m 12,9 km/h (3 Bft) 97,87 %
18.12.2019 18:22 7,0 C 6,1 C 5,0 C 89 % 1016,3 hPa 0,0 l/m 0 min 0 min 0 W/m 12,9 km/h (3 Bft) 97,87 %
18.12.2019 18:24 7,0 C 6,1 C 5,0 C 89 % 1016,4 hPa 0,0 l/m 0 min 0 min 0 W/m 12,9 km/h (3 Bft) 97,87 %
18.12.2019 18:26 7,0 C 6,1 C 5,0 C 89 % 1016,4 hPa 0,0 l/m 0 min 0 min 0 W/m 6,4 km/h (2 Bft) 95,65 %
18.12.2019 18:28 7,0 C 6,1 C 5,0 C 89 % 1016,3 hPa 0,0 l/m 0 min 0 min 0 W/m 16,1 km/h (3 Bft) 97,87 %
18.12.2019 18:30 6,9 C 6,1 C 5,0 C 89 % 1016,4 hPa 0,0 l/m 0 min 0 min 0 W/m 16,1 km/h (3 Bft) 95,74 %
18.12.2019 18:32 6,9 C 6,1 C 5,6 C 89 % 1016,3 hPa 0,0 l/m 0 min 0 min 0 W/m 16,1 km/h (3 Bft) 97,87 %
18.12.2019 18:34 6,9 C 6,1 C 5,6 C 90 % 1016,3 hPa 0,0 l/m 0 min 0 min 0 W/m 19,3 km/h (3 Bft) 97,87 %
18.12.2019 18:36 6,9 C 6,1 C 5,6 C 90 % 1016,3 hPa 0,0 l/m 0 min 0 min 0 W/m 19,3 km/h (3 Bft) 95,65 %
18.12.2019 18:38 6,9 C 6,1 C 5,6 C 90 % 1016,3 hPa 0,0 l/m 0 min 0 min 0 W/m 16,1 km/h (3 Bft) 97,87 %
18.12.2019 18:40 7,0 C 6,7 C 5,6 C 90 % 1016,2 hPa 0,0 l/m 0 min 0 min 0 W/m 19,3 km/h (3 Bft) 97,87 %
18.12.2019 18:42 7,0 C 6,7 C 5,6 C 90 % 1016,2 hPa 0,0 l/m 0 min 0 min 0 W/m 16,1 km/h (3 Bft) 97,87 %
18.12.2019 18:44 7,0 C 6,7 C 5,6 C 90 % 1016,3 hPa 0,0 l/m 0 min 0 min 0 W/m 16,1 km/h (3 Bft) 97,87 %
18.12.2019 18:46 7,1 C 6,7 C 5,6 C 90 % 1016,3 hPa 0,0 l/m 0 min 0 min 0 W/m 22,5 km/h (4 Bft) 97,87 %
18.12.2019 18:48 7,1 C 6,7 C 6,1 C 90 % 1016,3 hPa 0,0 l/m 0 min 0 min 0 W/m 19,3 km/h (3 Bft) 95,65 %
18.12.2019 18:50 7,1 C 6,7 C 6,1 C 90 % 1016,3 hPa 0,0 l/m 0 min 0 min 0 W/m 19,3 km/h (3 Bft) 97,87 %
18.12.2019 18:52 7,2 C 6,7 C 6,1 C 90 % 1016,3 hPa 0,0 l/m 0 min 0 min 0 W/m 19,3 km/h (3 Bft) 97,87 %
18.12.2019 18:54 7,2 C 6,7 C 6,1 C 90 % 1016,3 hPa 0,0 l/m 0 min 0 min 0 W/m 16,1 km/h (3 Bft) 95,74 %
18.12.2019 18:56 7,2 C 6,7 C 6,1 C 90 % 1016,3 hPa 0,0 l/m 0 min 0 min 0 W/m 19,3 km/h (3 Bft) 95,74 %
18.12.2019 18:58 7,2 C 6,7 C 6,1 C 90 % 1016,3 hPa 0,0 l/m 0 min 0 min 0 W/m 25,7 km/h (4 Bft) 95,74 %
18.12.2019 19:00 7,3 C 6,7 C 6,1 C 90 % 1016,3 hPa 0,0 l/m 0 min 0 min 0 W/m 19,3 km/h (3 Bft) 97,83 %
18.12.2019 19:02 7,3 C 6,7 C 5,6 C 90 % 1016,3 hPa 0,0 l/m 0 min 0 min 0 W/m 12,9 km/h (3 Bft) 89,36 %
18.12.2019 19:04 7,3 C 6,7 C 5,6 C 90 % 1016,3 hPa 0,0 l/m 0 min 0 min 0 W/m 12,9 km/h (3 Bft) 95,74 %
18.12.2019 19:06 7,3 C 6,7 C 5,6 C 90 % 1016,4 hPa 0,0 l/m 0 min 0 min 0 W/m 19,3 km/h (3 Bft) 97,87 %
18.12.2019 19:08 7,3 C 6,7 C 5,6 C 90 % 1016,3 hPa 0,0 l/m 0 min 0 min 0 W/m 16,1 km/h (3 Bft) 97,87 %
18.12.2019 19:10 7,3 C 6,7 C 5,6 C 90 % 1016,4 hPa 0,0 l/m 0 min 0 min 0 W/m 19,3 km/h (3 Bft) 97,83 %
18.12.2019 19:12 7,3 C 6,7 C 5,6 C 90 % 1016,4 hPa 0,0 l/m 0 min 0 min 0 W/m 22,5 km/h (4 Bft) 95,74 %
18.12.2019 19:14 7,3 C 6,7 C 5,6 C 90 % 1016,4 hPa 0,0 l/m 0 min 0 min 0 W/m 16,1 km/h (3 Bft) 95,74 %
18.12.2019 19:16 7,3 C 6,1 C 5,6 C 90 % 1016,4 hPa 0,0 l/m 0 min 0 min 0 W/m 16,1 km/h (3 Bft) 97,87 %
18.12.2019 19:18 7,3 C 6,1 C 5,6 C 90 % 1016,4 hPa 0,0 l/m 0 min 0 min 0 W/m 19,3 km/h (3 Bft) 97,87 %
18.12.2019 19:20 7,3 C 6,7 C 5,6 C 90 % 1016,4 hPa 0,0 l/m 0 min 0 min 0 W/m 12,9 km/h (3 Bft) 93,62 %
18.12.2019 19:22 7,3 C 6,1 C 5,6 C 90 % 1016,4 hPa 0,0 l/m 0 min 0 min 0 W/m 22,5 km/h (4 Bft) 95,65 %
18.12.2019 19:24 7,3 C 6,7 C 5,6 C 90 % 1016,3 hPa 0,0 l/m 0 min 0 min 0 W/m 22,5 km/h (4 Bft) 93,62 %
18.12.2019 19:26 7,2 C 6,7 C 5,6 C 90 % 1016,4 hPa 0,0 l/m 0 min 0 min 0 W/m 19,3 km/h (3 Bft) 95,74 %
18.12.2019 19:28 7,3 C 6,7 C 5,6 C 90 % 1016,4 hPa 0,0 l/m 0 min 0 min 0 W/m 22,5 km/h (4 Bft) 97,87 %
18.12.2019 19:30 7,2 C 6,7 C 5,6 C 90 % 1016,4 hPa 0,0 l/m 0 min 0 min 0 W/m 16,1 km/h (3 Bft) 97,87 %
18.12.2019 19:32 7,2 C 6,7 C 5,6 C 90 % 1016,4 hPa 0,0 l/m 0 min 0 min 0 W/m 16,1 km/h (3 Bft) 95,74 %
18.12.2019 19:34 7,2 C 6,7 C 5,6 C 90 % 1016,3 hPa 0,0 l/m 0 min 0 min 0 W/m 19,3 km/h (3 Bft) 93,48 %
18.12.2019 19:36 7,2 C 6,1 C 5,6 C 91 % 1016,3 hPa 0,0 l/m 0 min 0 min 0 W/m 16,1 km/h (3 Bft) 95,74 %
18.12.2019 19:38 7,2 C 6,1 C 5,6 C 91 % 1016,3 hPa 0,0 l/m 0 min 0 min 0 W/m 12,9 km/h (3 Bft) 95,74 %
18.12.2019 19:40 7,2 C 6,1 C 5,6 C 91 % 1016,3 hPa 0,0 l/m 0 min 0 min 0 W/m 16,1 km/h (3 Bft) 95,74 %
18.12.2019 19:42 7,2 C 6,1 C 5,6 C 91 % 1016,2 hPa 0,0 l/m 0 min 0 min 0 W/m 19,3 km/h (3 Bft) 95,74 %
18.12.2019 19:44 7,2 C 6,7 C 5,6 C 91 % 1016,2 hPa 0,0 l/m 0 min 0 min 0 W/m 19,3 km/h (3 Bft) 97,87 %
18.12.2019 19:46 7,2 C 6,7 C 5,6 C 91 % 1016,3 hPa 0,0 l/m 0 min 0 min 0 W/m 22,5 km/h (4 Bft) 95,65 %
18.12.2019 19:48 7,2 C 6,7 C 5,6 C 91 % 1016,2 hPa 0,0 l/m 0 min 0 min 0 W/m 22,5 km/h (4 Bft) 95,74 %
18.12.2019 19:50 7,2 C 6,7 C 5,6 C 91 % 1016,2 hPa 0,0 l/m 0 min 0 min 0 W/m 19,3 km/h (3 Bft) 97,87 %
18.12.2019 19:52 7,2 C 6,7 C 5,6 C 91 % 1016,3 hPa 0,0 l/m 0 min 0 min 0 W/m 19,3 km/h (3 Bft) 97,87 %
18.12.2019 19:54 7,2 C 6,7 C 6,1 C 91 % 1016,3 hPa 0,0 l/m 0 min 0 min 0 W/m 22,5 km/h (4 Bft) 95,74 %
18.12.2019 19:56 7,2 C 6,7 C 5,6 C 91 % 1016,2 hPa 0,0 l/m 0 min 0 min 0 W/m 22,5 km/h (4 Bft) 97,87 %
18.12.2019 19:58 7,3 C 6,7 C 5,6 C 91 % 1016,3 hPa 0,0 l/m 0 min 0 min 0 W/m 16,1 km/h (3 Bft) 95,65 %
18.12.2019 20:00 7,2 C 6,7 C 5,6 C 91 % 1016,3 hPa 0,0 l/m 0 min 0 min 0 W/m 12,9 km/h (3 Bft) 97,87 %
18.12.2019 20:02 7,3 C 6,7 C 5,6 C 91 % 1016,3 hPa 0,0 l/m 0 min 0 min 0 W/m 12,9 km/h (3 Bft) 97,87 %
18.12.2019 20:04 7,3 C 6,7 C 5,6 C 91 % 1016,3 hPa 0,0 l/m 0 min 0 min 0 W/m 12,9 km/h (3 Bft) 95,74 %
18.12.2019 20:06 7,3 C 6,7 C 6,1 C 91 % 1016,3 hPa 0,0 l/m 0 min 0 min 0 W/m 25,7 km/h (4 Bft) 95,74 %
18.12.2019 20:08 7,3 C 6,7 C 5,6 C 91 % 1016,3 hPa 0,0 l/m 0 min 0 min 0 W/m 16,1 km/h (3 Bft) 93,62 %
18.12.2019 20:10 7,3 C 6,7 C 6,1 C 91 % 1016,4 hPa 0,0 l/m 0 min 0 min 0 W/m 22,5 km/h (4 Bft) 97,83 %
18.12.2019 20:12 7,3 C 6,7 C 6,1 C 91 % 1016,4 hPa 0,0 l/m 0 min 0 min 0 W/m 22,5 km/h (4 Bft) 97,87 %
18.12.2019 20:14 7,3 C 6,7 C 6,1 C 92 % 1016,3 hPa 0,0 l/m 0 min 0 min 0 W/m 19,3 km/h (3 Bft) 97,87 %
18.12.2019 20:16 7,3 C 6,7 C 6,1 C 92 % 1016,4 hPa 0,0 l/m 0 min 0 min 0 W/m 19,3 km/h (3 Bft) 97,87 %
18.12.2019 20:18 7,4 C 6,7 C 6,1 C 92 % 1016,4 hPa 0,0 l/m 0 min 0 min 0 W/m 19,3 km/h (3 Bft) 97,87 %
18.12.2019 20:20 7,4 C 6,7 C 6,1 C 92 % 1016,4 hPa 0,0 l/m 0 min 0 min 0 W/m 29,0 km/h (5 Bft) 97,83 %
18.12.2019 20:22 7,4 C 6,7 C 6,1 C 92 % 1016,4 hPa 0,0 l/m 0 min 0 min 0 W/m 25,7 km/h (4 Bft) 100,00 %
18.12.2019 20:24 7,4 C 6,7 C 6,1 C 91 % 1016,4 hPa 0,0 l/m 0 min 0 min 0 W/m 22,5 km/h (4 Bft) 100,00 %
18.12.2019 20:26 7,4 C 6,7 C 6,1 C 91 % 1016,4 hPa 0,0 l/m 0 min 0 min 0 W/m 35,4 km/h (5 Bft) 100,00 %
18.12.2019 20:28 7,4 C 6,7 C 6,1 C 91 % 1016,4 hPa 0,0 l/m 0 min 0 min 0 W/m 22,5 km/h (4 Bft) 97,87 %
18.12.2019 20:30 7,4 C 6,7 C 6,1 C 91 % 1016,4 hPa 0,0 l/m 0 min 0 min 0 W/m 22,5 km/h (4 Bft) 100,00 %
18.12.2019 20:32 7,4 C 6,7 C 6,1 C 91 % 1016,4 hPa 0,0 l/m 0 min 0 min 0 W/m 19,3 km/h (3 Bft) 100,00 %
18.12.2019 20:34 7,4 C 6,7 C 6,1 C 91 % 1016,4 hPa 0,0 l/m 0 min 0 min 0 W/m 19,3 km/h (3 Bft) 100,00 %
18.12.2019 20:36 7,4 C 6,7 C 6,1 C 91 % 1016,3 hPa 0,0 l/m 0 min 0 min 0 W/m 19,3 km/h (3 Bft) 97,87 %
18.12.2019 20:38 7,4 C 6,7 C 6,1 C 91 % 1016,3 hPa 0,0 l/m 0 min 0 min 0 W/m 22,5 km/h (4 Bft) 100,00 %
18.12.2019 20:40 7,4 C 6,7 C 6,1 C 91 % 1016,3 hPa 0,0 l/m 0 min 0 min 0 W/m 19,3 km/h (3 Bft) 100,00 %
18.12.2019 20:42 7,4 C 6,7 C 6,1 C 91 % 1016,3 hPa 0,0 l/m 0 min 0 min 0 W/m 19,3 km/h (3 Bft) 100,00 %
18.12.2019 20:44 7,4 C 6,7 C 6,1 C 91 % 1016,3 hPa 0,0 l/m 0 min 0 min 0 W/m 22,5 km/h (4 Bft) 97,83 %
18.12.2019 20:46 7,4 C 6,7 C 6,1 C 91 % 1016,3 hPa 0,0 l/m 0 min 0 min 0 W/m 16,1 km/h (3 Bft) 95,74 %
18.12.2019 20:48 7,4 C 6,7 C 6,1 C 91 % 1016,3 hPa 0,0 l/m 0 min 0 min 0 W/m 29,0 km/h (5 Bft) 97,87 %
18.12.2019 20:50 7,4 C 6,7 C 6,1 C 91 % 1016,3 hPa 0,0 l/m 0 min 0 min 0 W/m 16,1 km/h (3 Bft) 95,74 %
18.12.2019 20:52 7,4 C 6,7 C 6,1 C 91 % 1016,3 hPa 0,0 l/m 0 min 0 min 0 W/m 22,5 km/h (4 Bft) 97,87 %
18.12.2019 20:54 7,4 C 6,7 C 6,1 C 91 % 1016,3 hPa 0,0 l/m 0 min 0 min 0 W/m 19,3 km/h (3 Bft) 97,87 %
18.12.2019 20:56 7,4 C 6,7 C 6,1 C 91 % 1016,3 hPa 0,0 l/m 0 min 0 min 0 W/m 22,5 km/h (4 Bft) 97,83 %
18.12.2019 20:58 7,4 C 6,7 C 6,1 C 91 % 1016,3 hPa 0,0 l/m 0 min 0 min 0 W/m 22,5 km/h (4 Bft) 97,87 %
18.12.2019 21:00 7,4 C 6,7 C 6,1 C 91 % 1016,2 hPa 0,0 l/m 0 min 0 min 0 W/m 19,3 km/h (3 Bft) 97,87 %
18.12.2019 21:02 7,5 C 6,7 C 6,1 C 91 % 1016,2 hPa 0,0 l/m 0 min 0 min 0 W/m 25,7 km/h (4 Bft) 97,87 %
18.12.2019 21:04 7,4 C 6,7 C 6,1 C 91 % 1016,2 hPa 0,0 l/m 0 min 0 min 0 W/m 16,1 km/h (3 Bft) 97,87 %
18.12.2019 21:06 7,5 C 6,7 C 6,1 C 91 % 1016,2 hPa 0,0 l/m 0 min 0 min 0 W/m 19,3 km/h (3 Bft) 95,74 %
18.12.2019 21:08 7,4 C 6,7 C 6,1 C 91 % 1016,2 hPa 0,0 l/m 0 min 0 min 0 W/m 22,5 km/h (4 Bft) 95,65 %
18.12.2019 21:10 7,5 C 6,7 C 6,1 C 91 % 1016,3 hPa 0,0 l/m 0 min 0 min 0 W/m 16,1 km/h (3 Bft) 97,87 %
18.12.2019 21:12 7,5 C 6,7 C 6,1 C 91 % 1016,3 hPa 0,0 l/m 0 min 0 min 0 W/m 29,0 km/h (5 Bft) 97,87 %
18.12.2019 21:14 7,5 C 6,7 C 6,1 C 91 % 1016,3 hPa 0,0 l/m 0 min 0 min 0 W/m 19,3 km/h (3 Bft) 97,87 %
18.12.2019 21:16 7,5 C 6,7 C 6,1 C 91 % 1016,2 hPa 0,0 l/m 0 min 0 min 0 W/m 29,0 km/h (5 Bft) 97,87 %
18.12.2019 21:18 7,6 C 7,2 C 6,1 C 91 % 1016,2 hPa 0,0 l/m 0 min 0 min 0 W/m 29,0 km/h (5 Bft) 95,65 %
18.12.2019 21:20 7,6 C 7,2 C 6,1 C 91 % 1016,2 hPa 0,0 l/m 0 min 0 min 0 W/m 25,7 km/h (4 Bft) 93,62 %
18.12.2019 21:22 7,6 C 7,2 C 6,1 C 91 % 1016,2 hPa 0,0 l/m 0 min 0 min 0 W/m 22,5 km/h (4 Bft) 97,87 %
18.12.2019 21:24 7,6 C 7,2 C 6,1 C 91 % 1016,2 hPa 0,0 l/m 0 min 0 min 0 W/m 19,3 km/h (3 Bft) 95,74 %
18.12.2019 21:26 7,6 C 7,2 C 6,1 C 91 % 1016,2 hPa 0,0 l/m 0 min 0 min 0 W/m 22,5 km/h (4 Bft) 95,74 %
18.12.2019 21:28 7,6 C 6,7 C 6,1 C 91 % 1016,2 hPa 0,0 l/m 0 min 0 min 0 W/m 19,3 km/h (3 Bft) 100,00 %
18.12.2019 21:30 7,6 C 7,2 C 6,1 C 91 % 1016,2 hPa 0,0 l/m 0 min 0 min 0 W/m 29,0 km/h (5 Bft) 97,83 %
18.12.2019 21:32 7,6 C 7,2 C 6,1 C 91 % 1016,2 hPa 0,0 l/m 0 min 0 min 0 W/m 35,4 km/h (5 Bft) 100,00 %
18.12.2019 21:34 7,6 C 7,2 C 6,1 C 91 % 1016,1 hPa 0,0 l/m 0 min 0 min 0 W/m 25,7 km/h (4 Bft) 100,00 %
18.12.2019 21:36 7,6 C 7,2 C 6,1 C 91 % 1016,1 hPa 0,0 l/m 0 min 0 min 0 W/m 22,5 km/h (4 Bft) 95,74 %
18.12.2019 21:38 7,6 C 7,2 C 6,1 C 91 % 1016,1 hPa 0,0 l/m 0 min 0 min 0 W/m 25,7 km/h (4 Bft) 97,87 %
18.12.2019 21:40 7,6 C 7,2 C 6,1 C 91 % 1016,1 hPa 0,0 l/m 0 min 0 min 0 W/m 22,5 km/h (4 Bft) 100,00 %
18.12.2019 21:42 7,6 C 6,7 C 6,1 C 91 % 1016,0 hPa 0,0 l/m 0 min 0 min 0 W/m 25,7 km/h (4 Bft) 97,83 %
18.12.2019 21:44 7,7 C 6,7 C 6,1 C 91 % 1016,0 hPa 0,0 l/m 0 min 0 min 0 W/m 19,3 km/h (3 Bft) 97,87 %
18.12.2019 21:46 7,7 C 6,7 C 6,1 C 91 % 1015,9 hPa 0,0 l/m 0 min 0 min 0 W/m 25,7 km/h (4 Bft) 100,00 %
18.12.2019 21:48 7,6 C 6,7 C 6,1 C 91 % 1015,8 hPa 0,0 l/m 0 min 0 min 0 W/m 25,7 km/h (4 Bft) 100,00 %
18.12.2019 21:50 7,7 C 6,7 C 6,1 C 91 % 1015,8 hPa 0,0 l/m 0 min 0 min 0 W/m 29,0 km/h (5 Bft) 100,00 %
18.12.2019 21:52 7,7 C 6,7 C 6,1 C 91 % 1015,7 hPa 0,0 l/m 0 min 0 min 0 W/m 32,2 km/h (5 Bft) 100,00 %
18.12.2019 21:54 7,7 C 6,7 C 6,1 C 91 % 1015,8 hPa 0,0 l/m 0 min 0 min 0 W/m 25,7 km/h (4 Bft) 100,00 %
18.12.2019 21:56 7,6 C 6,7 C 6,1 C 91 % 1015,8 hPa 0,0 l/m 0 min 0 min 0 W/m 25,7 km/h (4 Bft) 100,00 %
18.12.2019 21:58 7,7 C 6,7 C 6,1 C 91 % 1015,7 hPa 0,0 l/m 0 min 0 min 0 W/m 32,2 km/h (5 Bft) 100,00 %
18.12.2019 22:00 7,7 C 7,2 C 6,1 C 91 % 1015,7 hPa 0,0 l/m 0 min 0 min 0 W/m 35,4 km/h (5 Bft) 100,00 %
18.12.2019 22:02 7,7 C 7,2 C 6,1 C 92 % 1015,6 hPa 0,0 l/m 0 min 0 min 0 W/m 25,7 km/h (4 Bft) 100,00 %
18.12.2019 22:04 7,7 C 7,2 C 6,1 C 92 % 1015,7 hPa 0,0 l/m 0 min 0 min 0 W/m 25,7 km/h (4 Bft) 100,00 %
18.12.2019 22:06 7,7 C 7,2 C 6,1 C 92 % 1015,6 hPa 0,0 l/m 0 min 0 min 0 W/m 19,3 km/h (3 Bft) 100,00 %
18.12.2019 22:08 7,7 C 7,2 C 6,1 C 92 % 1015,7 hPa 0,0 l/m 0 min 0 min 0 W/m 22,5 km/h (4 Bft) 95,74 %
18.12.2019 22:10 7,7 C 7,2 C 6,1 C 92 % 1015,6 hPa 0,0 l/m 0 min 0 min 0 W/m 38,6 km/h (5 Bft) 100,00 %
18.12.2019 22:12 7,7 C 7,2 C 6,1 C 92 % 1015,6 hPa 0,0 l/m 0 min 0 min 0 W/m 29,0 km/h (5 Bft) 97,87 %
18.12.2019 22:14 7,7 C 7,2 C 6,1 C 92 % 1015,6 hPa 0,0 l/m 0 min 0 min 0 W/m 29,0 km/h (5 Bft) 97,87 %
18.12.2019 22:16 7,7 C 7,2 C 6,1 C 92 % 1015,6 hPa 0,0 l/m 0 min 0 min 0 W/m 35,4 km/h (5 Bft) 97,83 %
18.12.2019 22:18 7,7 C 7,2 C 6,7 C 92 % 1015,6 hPa 0,0 l/m 0 min 0 min 0 W/m 35,4 km/h (5 Bft) 95,74 %
18.12.2019 22:20 7,8 C 7,2 C 6,1 C 92 % 1015,6 hPa 0,0 l/m 0 min 0 min 0 W/m 19,3 km/h (3 Bft) 97,87 %
18.12.2019 22:22 7,8 C 7,2 C 6,1 C 92 % 1015,5 hPa 0,0 l/m 0 min 0 min 0 W/m 29,0 km/h (5 Bft) 97,87 %
18.12.2019 22:24 7,8 C 7,2 C 6,1 C 92 % 1015,5 hPa 0,0 l/m 0 min 0 min 0 W/m 25,7 km/h (4 Bft) 95,74 %
18.12.2019 22:26 7,8 C 7,2 C 6,1 C 92 % 1015,5 hPa 0,0 l/m 0 min 0 min 0 W/m 35,4 km/h (5 Bft) 93,62 %
18.12.2019 22:28 7,8 C 7,2 C 6,1 C 92 % 1015,5 hPa 0,0 l/m 0 min 0 min 0 W/m 29,0 km/h (5 Bft) 95,65 %
18.12.2019 22:30 7,8 C 7,2 C 6,1 C 92 % 1015,6 hPa 0,0 l/m 0 min 0 min 0 W/m 22,5 km/h (4 Bft) 95,74 %
18.12.2019 22:32 7,8 C 7,2 C 6,1 C 92 % 1015,5 hPa 0,0 l/m 0 min 0 min 0 W/m 29,0 km/h (5 Bft) 95,74 %
18.12.2019 22:34 7,8 C 7,2 C 6,1 C 92 % 1015,5 hPa 0,0 l/m 0 min 0 min 0 W/m 25,7 km/h (4 Bft) 93,62 %
18.12.2019 22:36 7,8 C 7,2 C 6,1 C 92 % 1015,5 hPa 0,0 l/m 0 min 0 min 0 W/m 19,3 km/h (3 Bft) 95,74 %
18.12.2019 22:38 7,8 C 6,7 C 6,1 C 92 % 1015,5 hPa 0,0 l/m 0 min 0 min 0 W/m 22,5 km/h (4 Bft) 95,74 %
18.12.2019 22:40 7,7 C 7,2 C 6,1 C 92 % 1015,5 hPa 0,0 l/m 0 min 0 min 0 W/m 25,7 km/h (4 Bft) 95,65 %
18.12.2019 22:42 7,7 C 7,2 C 6,1 C 92 % 1015,5 hPa 0,0 l/m 0 min 0 min 0 W/m 35,4 km/h (5 Bft) 95,74 %
18.12.2019 22:44 7,8 C 7,2 C 6,1 C 92 % 1015,4 hPa 0,0 l/m 0 min 0 min 0 W/m 25,7 km/h (4 Bft) 95,74 %
18.12.2019 22:46 7,7 C 7,2 C 6,1 C 92 % 1015,4 hPa 0,0 l/m 0 min 0 min 0 W/m 25,7 km/h (4 Bft) 95,74 %
18.12.2019 22:48 7,7 C 6,7 C 6,1 C 92 % 1015,5 hPa 0,0 l/m 0 min 0 min 0 W/m 22,5 km/h (4 Bft) 95,74 %
18.12.2019 22:50 7,7 C 6,7 C 6,1 C 92 % 1015,4 hPa 0,0 l/m 0 min 0 min 0 W/m 22,5 km/h (4 Bft) 93,62 %
18.12.2019 22:52 7,7 C 7,2 C 6,1 C 92 % 1015,4 hPa 0,0 l/m 0 min 0 min 0 W/m 29,0 km/h (5 Bft) 93,48 %
18.12.2019 22:54 7,7 C 6,7 C 6,1 C 92 % 1015,3 hPa 0,0 l/m 0 min 0 min 0 W/m 22,5 km/h (4 Bft) 95,74 %
18.12.2019 22:56 7,7 C 6,7 C 6,1 C 92 % 1015,3 hPa 0,0 l/m 0 min 0 min 0 W/m 22,5 km/h (4 Bft) 95,74 %
18.12.2019 22:58 7,7 C 6,7 C 6,1 C 92 % 1015,3 hPa 0,0 l/m 0 min 0 min 0 W/m 29,0 km/h (5 Bft) 95,74 %
18.12.2019 23:00 7,7 C 7,2 C 6,1 C 92 % 1015,3 hPa 0,0 l/m 0 min 0 min 0 W/m 25,7 km/h (4 Bft) 95,74 %
18.12.2019 23:02 7,7 C 7,2 C 6,1 C 92 % 1015,3 hPa 0,0 l/m 0 min 0 min 0 W/m 22,5 km/h (4 Bft) 93,62 %
18.12.2019 23:04 7,7 C 7,2 C 6,1 C 92 % 1015,3 hPa 0,0 l/m 0 min 0 min 0 W/m 25,7 km/h (4 Bft) 78,26 %
18.12.2019 23:06 7,7 C 7,2 C 6,1 C 92 % 1015,2 hPa 0,0 l/m 0 min 0 min 0 W/m 19,3 km/h (3 Bft) 71,11 %
18.12.2019 23:08 7,7 C 7,2 C 6,1 C 92 % 1015,3 hPa 0,0 l/m 0 min 0 min 0 W/m 29,0 km/h (5 Bft) 95,74 %
18.12.2019 23:10 7,7 C 7,2 C 6,1 C 92 % 1015,4 hPa 0,0 l/m 0 min 0 min 0 W/m 16,1 km/h (3 Bft) 95,74 %
18.12.2019 23:12 7,7 C 7,2 C 6,1 C 93 % 1015,4 hPa 0,0 l/m 0 min 0 min 0 W/m 29,0 km/h (5 Bft) 100,00 %
18.12.2019 23:14 7,7 C 7,2 C 6,1 C 93 % 1015,3 hPa 0,0 l/m 0 min 0 min 0 W/m 25,7 km/h (4 Bft) 97,83 %
18.12.2019 23:16 7,7 C 7,2 C 6,1 C 93 % 1015,3 hPa 0,0 l/m 0 min 0 min 0 W/m 25,7 km/h (4 Bft) 100,00 %
18.12.2019 23:18 7,7 C 7,2 C 6,1 C 93 % 1015,2 hPa 0,0 l/m 0 min 0 min 0 W/m 35,4 km/h (5 Bft) 100,00 %
18.12.2019 23:20 7,8 C 7,2 C 6,1 C 93 % 1015,2 hPa 0,0 l/m 0 min 0 min 0 W/m 22,5 km/h (4 Bft) 100,00 %
18.12.2019 23:22 7,8 C 7,2 C 6,1 C 93 % 1015,2 hPa 0,0 l/m 0 min 0 min 0 W/m 19,3 km/h (3 Bft) 97,87 %
18.12.2019 23:24 7,8 C 7,2 C 6,1 C 93 % 1015,2 hPa 0,0 l/m 0 min 0 min 0 W/m 25,7 km/h (4 Bft) 97,87 %
18.12.2019 23:26 7,8 C 7,2 C 6,7 C 93 % 1015,2 hPa 0,0 l/m 0 min 0 min 0 W/m 25,7 km/h (4 Bft) 95,65 %
18.12.2019 23:28 7,8 C 7,2 C 6,1 C 93 % 1015,2 hPa 0,0 l/m 0 min 0 min 0 W/m 25,7 km/h (4 Bft) 97,87 %
18.12.2019 23:30 7,8 C 7,2 C 6,1 C 93 % 1015,1 hPa 0,0 l/m 0 min 0 min 0 W/m 19,3 km/h (3 Bft) 100,00 %
18.12.2019 23:32 7,8 C 7,2 C 6,7 C 93 % 1015,1 hPa 0,0 l/m 0 min 0 min 0 W/m 25,7 km/h (4 Bft) 95,74 %
18.12.2019 23:34 7,8 C 7,2 C 6,7 C 93 % 1015,1 hPa 0,0 l/m 0 min 0 min 0 W/m 22,5 km/h (4 Bft) 97,87 %
18.12.2019 23:36 7,8 C 7,2 C 6,1 C 93 % 1015,1 hPa 0,0 l/m 0 min 0 min 0 W/m 22,5 km/h (4 Bft) 97,87 %
18.12.2019 23:38 7,8 C 7,2 C 6,1 C 93 % 1015,2 hPa 0,0 l/m 0 min 0 min 0 W/m 19,3 km/h (3 Bft) 97,83 %
18.12.2019 23:40 7,8 C 7,2 C 6,7 C 93 % 1015,1 hPa 0,0 l/m 0 min 0 min 0 W/m 22,5 km/h (4 Bft) 97,87 %
18.12.2019 23:42 7,8 C 7,2 C 6,1 C 93 % 1015,2 hPa 0,0 l/m 0 min 0 min 0 W/m 25,7 km/h (4 Bft) 97,87 %
18.12.2019 23:44 7,8 C 7,2 C 6,7 C 93 % 1015,1 hPa 0,0 l/m 0 min 0 min 0 W/m 22,5 km/h (4 Bft) 95,74 %
18.12.2019 23:46 7,8 C 7,2 C 6,7 C 93 % 1015,1 hPa 0,0 l/m 0 min 0 min 0 W/m 22,5 km/h (4 Bft) 97,87 %
18.12.2019 23:48 7,8 C 7,2 C 6,7 C 93 % 1015,1 hPa 0,0 l/m 0 min 0 min 0 W/m 38,6 km/h (5 Bft) 97,87 %
18.12.2019 23:50 7,8 C 7,2 C 6,7 C 93 % 1015,0 hPa 0,0 l/m 0 min 0 min 0 W/m 25,7 km/h (4 Bft) 97,83 %
18.12.2019 23:52 7,8 C 7,2 C 6,7 C 93 % 1014,9 hPa 0,0 l/m 0 min 0 min 0 W/m 22,5 km/h (4 Bft) 97,87 %
18.12.2019 23:57 7,8 C 7,2 C 6,7 C 93 % 1014,8 hPa 0,0 l/m 0 min 0 min 0 W/m 22,5 km/h (4 Bft) 97,14 %
18.12.2019 23:58 7,8 C 7,2 C 6,7 C 93 % 1014,8 hPa 0,0 l/m 0 min 0 min 0 W/m 19,3 km/h (3 Bft) 100,00 %
_ Min-Zeit 09:54 07:34 09:26 14:00 00:00 - - - - 02:08 13:12
Minimum _ 5,9 C 5,6 C 3,9 C 80 % 1007,5 hPa - - - - 0,0 km/h (0 Bft) 37,04 %
_ Max-Zeit 13:50 13:52 13:30 06:06 15:24 00:00 12:08 00:08 12:38 22:10 00:20
Maximum _ 10,8 C 15,0 C 8,9 C 98 % 1017,6 hPa 0,0 l/m 4 min 4 min 273 W/m 38,6 km/h
S (5 Bft)
100,00 %
Durchschnitt _ 8,0 C 7,8 C 6,2 C 92 % 1014,9 hPa #0,0 l/m #4:26 h #8 min. 137 W/m 12,0 km/h (2 Bft) 97,22 %
© 2019 W. Hausmann